Time,TemperatureF,DewpointF,PressureIn,WindDirection,WindDirectionDegrees,WindSpeedMPH,WindSpeedGustMPH,Humidity,HourlyPrecipIn,Conditions,Clouds,dailyrainin,SolarRadiationWatts/m^2,SoftwareType,DateUTC
2013-09-20 00:00:00,50.5,45.2,30.01,SSW,208,0.0,0.0,82,0.00,,CLR,0.01,0.00,VWS V14.01,2013-09-20 04:00:00,
2013-09-20 00:01:00,50.5,45.2,30.01,SSW,208,0.0,0.0,82,0.00,,FEW002,0.00,0.00,VWS V14.01,2013-09-20 04:01:00,
2013-09-20 00:05:00,50.4,45.1,30.01,SSW,208,0.0,0.0,82,0.00,,CLR,0.00,0.00,VWS V14.01,2013-09-20 04:05:00,
2013-09-20 00:06:00,50.4,45.1,30.01,SSW,208,0.0,0.0,82,0.00,,FEW002,0.00,0.00,VWS V14.01,2013-09-20 04:06:00,
2013-09-20 00:10:00,50.2,44.9,30.01,SSW,208,0.0,0.0,82,0.00,,CLR,0.00,0.00,VWS V14.01,2013-09-20 04:10:00,
2013-09-20 00:11:00,50.2,44.9,30.01,SSW,208,0.0,0.0,82,0.00,,FEW002,0.00,0.00,VWS V14.01,2013-09-20 04:11:00,
2013-09-20 00:15:00,50.1,44.8,30.01,SSW,208,0.0,0.0,82,0.00,,CLR,0.00,0.00,VWS V14.01,2013-09-20 04:15:00,
2013-09-20 00:16:00,50.1,44.8,30.01,SSW,208,0.0,0.0,82,0.00,,FEW002,0.00,0.00,VWS V14.01,2013-09-20 04:16:00,
2013-09-20 00:20:00,50.1,44.8,30.01,SSW,208,0.0,0.0,82,0.00,,CLR,0.00,0.00,VWS V14.01,2013-09-20 04:20:00,
2013-09-20 00:21:00,49.9,44.6,30.01,SSW,208,0.0,0.0,82,0.00,,FEW002,0.00,0.00,VWS V14.01,2013-09-20 04:21:00,
2013-09-20 00:25:00,49.9,44.6,30.01,SSW,208,0.0,0.0,82,0.00,,CLR,0.00,0.00,VWS V14.01,2013-09-20 04:25:00,
2013-09-20 00:26:00,49.8,44.5,30.01,SSW,208,0.0,0.0,82,0.00,,FEW002,0.00,0.00,VWS V14.01,2013-09-20 04:26:00,
2013-09-20 00:30:00,49.8,44.5,30.01,SSW,208,0.0,0.0,82,0.00,,CLR,0.00,0.00,VWS V14.01,2013-09-20 04:30:00,
2013-09-20 00:31:00,49.8,44.5,30.01,SSW,208,0.0,0.0,82,0.00,,FEW002,0.00,0.00,VWS V14.01,2013-09-20 04:31:00,
2013-09-20 00:35:00,49.8,44.5,30.01,SSW,208,0.0,0.0,82,0.00,,CLR,0.00,0.00,VWS V14.01,2013-09-20 04:35:00,
2013-09-20 00:36:00,49.8,44.5,30.01,SSW,208,0.0,0.0,82,0.00,,FEW002,0.00,0.00,VWS V14.01,2013-09-20 04:36:00,
2013-09-20 00:40:00,49.8,44.8,30.01,SSW,208,0.0,0.0,83,0.00,,CLR,0.00,0.00,VWS V14.01,2013-09-20 04:40:00,
2013-09-20 00:41:00,49.8,44.8,30.01,SSW,208,0.0,0.0,83,0.00,,FEW002,0.00,0.00,VWS V14.01,2013-09-20 04:41:00,
2013-09-20 00:45:00,49.6,44.7,30.01,SSW,208,0.0,0.0,83,0.00,,CLR,0.00,0.00,VWS V14.01,2013-09-20 04:45:00,
2013-09-20 00:46:00,49.6,44.7,30.01,SSW,208,0.0,0.0,83,0.00,,FEW002,0.00,0.00,VWS V14.01,2013-09-20 04:46:00,
2013-09-20 00:50:00,49.5,44.6,30.01,SSW,208,0.0,0.0,83,0.00,,CLR,0.00,0.00,VWS V14.01,2013-09-20 04:50:00,
2013-09-20 00:51:00,49.5,44.6,30.01,SSW,208,0.0,0.0,83,0.00,,FEW002,0.00,0.00,VWS V14.01,2013-09-20 04:51:00,
2013-09-20 00:55:00,49.4,44.5,30.01,SSW,208,0.0,0.0,83,0.00,,CLR,0.00,0.00,VWS V14.01,2013-09-20 04:55:00,
2013-09-20 00:56:00,49.4,44.5,30.01,SSW,208,0.0,0.0,83,0.00,,FEW002,0.00,0.00,VWS V14.01,2013-09-20 04:56:00,
2013-09-20 01:00:00,49.4,44.5,30.01,SSW,208,0.0,0.0,83,0.00,,CLR,0.00,0.00,VWS V14.01,2013-09-20 05:00:00,
2013-09-20 01:01:00,49.2,44.3,30.01,SSW,208,0.0,0.0,83,0.00,,,0.00,0.00,VWS V14.01,2013-09-20 05:01:00,
2013-09-20 01:05:00,49.2,44.3,30.01,SSW,208,0.0,0.0,83,0.00,,CLR,0.00,0.00,VWS V14.01,2013-09-20 05:05:00,
2013-09-20 01:06:00,49.2,44.3,30.01,SSW,208,0.0,0.0,83,0.00,,,0.00,0.00,VWS V14.01,2013-09-20 05:06:00,
2013-09-20 01:10:00,49.1,44.2,30.01,SSW,208,0.0,0.0,83,0.00,,CLR,0.00,0.00,VWS V14.01,2013-09-20 05:10:00,
2013-09-20 01:11:00,49.1,44.2,30.01,SSW,208,0.0,0.0,83,0.00,,,0.00,0.00,VWS V14.01,2013-09-20 05:11:00,
2013-09-20 01:15:00,48.9,44.0,30.01,SSW,208,0.0,0.0,83,0.00,,CLR,0.00,0.00,VWS V14.01,2013-09-20 05:15:00,
2013-09-20 01:16:00,48.9,44.0,30.01,SSW,208,0.0,0.0,83,0.00,,,0.00,0.00,VWS V14.01,2013-09-20 05:16:00,
2013-09-20 01:20:00,48.8,43.9,30.01,SSW,208,0.0,0.0,83,0.00,,CLR,0.00,0.00,VWS V14.01,2013-09-20 05:20:00,
2013-09-20 01:21:00,48.8,43.9,30.01,SSW,208,0.0,0.0,83,0.00,,,0.00,0.00,VWS V14.01,2013-09-20 05:21:00,
2013-09-20 01:25:00,48.6,43.7,30.01,SSW,208,0.0,0.0,83,0.00,,CLR,0.00,0.00,VWS V14.01,2013-09-20 05:25:00,
2013-09-20 01:26:00,48.6,43.7,30.01,SSW,208,0.0,0.0,83,0.00,,,0.00,0.00,VWS V14.01,2013-09-20 05:26:00,
2013-09-20 01:30:00,48.6,43.7,30.01,SSW,208,0.0,0.0,83,0.00,,CLR,0.00,0.00,VWS V14.01,2013-09-20 05:30:00,
2013-09-20 01:31:00,48.6,43.7,30.01,SSW,208,0.0,0.0,83,0.00,,,0.00,0.00,VWS V14.01,2013-09-20 05:31:00,
2013-09-20 01:35:00,48.6,43.7,30.01,SSW,208,0.0,0.0,83,0.00,,CLR,0.00,0.00,VWS V14.01,2013-09-20 05:35:00,
2013-09-20 01:36:00,48.6,43.7,30.01,SSW,208,0.0,0.0,83,0.00,,,0.00,0.00,VWS V14.01,2013-09-20 05:36:00,
2013-09-20 01:40:00,48.5,43.6,30.01,SSW,208,0.0,0.0,83,0.00,,CLR,0.00,0.00,VWS V14.01,2013-09-20 05:40:00,
2013-09-20 01:41:00,48.5,43.6,30.01,SSW,208,0.0,0.0,83,0.00,,,0.00,0.00,VWS V14.01,2013-09-20 05:41:00,
2013-09-20 01:45:00,48.3,43.4,30.02,SSW,208,0.0,0.0,83,0.00,,CLR,0.00,0.00,VWS V14.01,2013-09-20 05:45:00,
2013-09-20 01:46:00,48.3,43.4,30.02,SSW,208,0.0,0.0,83,0.00,,,0.00,0.00,VWS V14.01,2013-09-20 05:46:00,
2013-09-20 01:50:00,48.2,43.3,30.02,SSW,208,0.0,0.0,83,0.00,,CLR,0.00,0.00,VWS V14.01,2013-09-20 05:50:00,
2013-09-20 01:51:00,48.2,43.3,30.02,SSW,208,0.0,0.0,83,0.00,,,0.00,0.00,VWS V14.01,2013-09-20 05:51:00,
2013-09-20 01:55:00,48.0,43.1,30.02,SSW,208,0.0,0.0,83,0.00,,CLR,0.00,0.00,VWS V14.01,2013-09-20 05:55:00,
2013-09-20 01:56:00,48.0,43.1,30.02,SSW,208,0.0,0.0,83,0.00,,,0.00,0.00,VWS V14.01,2013-09-20 05:56:00,
2013-09-20 02:00:00,47.9,43.0,30.01,SSW,208,0.0,0.0,83,0.00,,CLR,0.00,0.00,VWS V14.01,2013-09-20 06:00:00,
2013-09-20 02:01:00,47.9,43.0,30.01,SSW,208,0.0,0.0,83,0.00,,,0.00,0.00,VWS V14.01,2013-09-20 06:01:00,
2013-09-20 02:05:00,47.9,43.3,30.01,SSW,208,0.0,0.0,84,0.00,,CLR,0.00,0.00,VWS V14.01,2013-09-20 06:05:00,
2013-09-20 02:06:00,47.9,43.3,30.01,SSW,208,0.0,0.0,84,0.00,,,0.00,0.00,VWS V14.01,2013-09-20 06:06:00,
2013-09-20 02:10:00,47.7,43.1,30.01,SSW,208,0.0,0.0,84,0.00,,CLR,0.00,0.00,VWS V14.01,2013-09-20 06:10:00,
2013-09-20 02:11:00,47.7,43.1,30.01,SSW,208,0.0,0.0,84,0.00,,,0.00,0.00,VWS V14.01,2013-09-20 06:11:00,
2013-09-20 02:15:00,47.7,43.1,30.01,SSW,208,0.0,0.0,84,0.00,,CLR,0.00,0.00,VWS V14.01,2013-09-20 06:15:00,
2013-09-20 02:16:00,47.7,43.1,30.01,SSW,208,0.0,0.0,84,0.00,,,0.00,0.00,VWS V14.01,2013-09-20 06:16:00,
2013-09-20 02:20:00,47.6,43.0,30.01,SSW,208,0.0,0.0,84,0.00,,CLR,0.00,0.00,VWS V14.01,2013-09-20 06:20:00,
2013-09-20 02:21:00,47.6,43.0,30.01,SSW,208,0.0,0.0,84,0.00,,,0.00,0.00,VWS V14.01,2013-09-20 06:21:00,
2013-09-20 02:25:00,47.6,43.0,30.01,SSW,208,0.0,0.0,84,0.00,,CLR,0.00,0.00,VWS V14.01,2013-09-20 06:25:00,
2013-09-20 02:26:00,47.6,43.0,30.01,SSW,208,0.0,0.0,84,0.00,,,0.00,0.00,VWS V14.01,2013-09-20 06:26:00,
2013-09-20 02:30:00,47.6,43.0,30.02,SSW,208,0.0,0.0,84,0.00,,CLR,0.00,0.00,VWS V14.01,2013-09-20 06:30:00,
2013-09-20 02:31:00,47.4,42.8,30.02,SSW,208,0.0,0.0,84,0.00,,,0.00,0.00,VWS V14.01,2013-09-20 06:31:00,
2013-09-20 02:35:00,47.4,42.8,30.02,SSW,208,0.0,0.0,84,0.00,,CLR,0.00,0.00,VWS V14.01,2013-09-20 06:35:00,
2013-09-20 02:36:00,47.4,42.8,30.02,SSW,208,0.0,0.0,84,0.00,,,0.00,0.00,VWS V14.01,2013-09-20 06:36:00,
2013-09-20 02:40:00,47.4,42.8,30.02,SSW,208,0.0,0.0,84,0.00,,CLR,0.00,0.00,VWS V14.01,2013-09-20 06:40:00,
2013-09-20 02:41:00,47.4,42.8,30.02,SSW,208,0.0,0.0,84,0.00,,,0.00,0.00,VWS V14.01,2013-09-20 06:41:00,
2013-09-20 02:45:00,47.4,42.8,30.02,SSW,208,0.0,0.0,84,0.00,,CLR,0.00,0.00,VWS V14.01,2013-09-20 06:45:00,
2013-09-20 02:46:00,47.3,42.7,30.02,SSW,208,0.0,0.0,84,0.00,,FEW002,0.00,0.00,VWS V14.01,2013-09-20 06:46:00,
2013-09-20 02:50:00,47.3,42.7,30.02,SSW,208,0.0,0.0,84,0.00,,CLR,0.00,0.00,VWS V14.01,2013-09-20 06:50:00,
2013-09-20 02:51:00,47.3,42.7,30.02,SSW,208,0.0,0.0,84,0.00,,FEW002,0.00,0.00,VWS V14.01,2013-09-20 06:51:00,
2013-09-20 02:55:00,47.3,42.7,30.02,SSW,208,0.0,0.0,84,0.00,,CLR,0.00,0.00,VWS V14.01,2013-09-20 06:55:00,
2013-09-20 02:56:00,47.3,42.7,30.02,SSW,208,0.0,0.0,84,0.00,,FEW002,0.00,0.00,VWS V14.01,2013-09-20 06:56:00,
2013-09-20 03:00:00,47.9,43.0,30.01,SSW,208,0.0,0.0,83,0.00,,-RA,0.00,0.00,VWS V14.01,2013-09-20 07:00:00,
2013-09-20 03:03:00,47.3,42.7,30.01,SSW,208,0.0,0.0,84,0.00,,CLR,0.00,0.00,VWS V14.01,2013-09-20 07:03:00,
2013-09-20 03:05:00,47.9,43.3,30.01,SSW,208,0.0,0.0,84,0.00,,-RA,0.00,0.00,VWS V14.01,2013-09-20 07:05:00,
2013-09-20 03:08:00,47.1,42.5,30.01,SSW,208,0.0,0.0,84,0.00,,CLR,0.00,0.00,VWS V14.01,2013-09-20 07:08:00,
2013-09-20 03:10:00,47.7,43.1,30.01,SSW,208,0.0,0.0,84,0.00,,-RA,0.00,0.00,VWS V14.01,2013-09-20 07:10:00,
2013-09-20 03:13:00,47.0,42.4,30.01,SSW,208,0.0,0.0,84,0.00,,CLR,0.00,0.00,VWS V14.01,2013-09-20 07:13:00,
2013-09-20 03:15:00,47.7,43.1,30.01,SSW,208,0.0,0.0,84,0.00,,-RA,0.00,0.00,VWS V14.01,2013-09-20 07:15:00,
2013-09-20 03:18:00,46.8,42.2,30.01,SSW,208,0.0,0.0,84,0.00,,CLR,0.00,0.00,VWS V14.01,2013-09-20 07:18:00,
2013-09-20 03:20:00,47.6,43.0,30.01,SSW,208,0.0,0.0,84,0.00,,-RA,0.00,0.00,VWS V14.01,2013-09-20 07:20:00,
2013-09-20 03:23:00,46.8,42.2,30.01,SSW,208,0.0,0.0,84,0.00,,CLR,0.00,0.00,VWS V14.01,2013-09-20 07:23:00,
2013-09-20 03:25:00,47.6,43.0,30.01,SSW,208,0.0,0.0,84,0.00,,-RA,0.00,0.00,VWS V14.01,2013-09-20 07:25:00,
2013-09-20 03:28:00,46.7,42.1,30.01,SSW,208,0.0,0.0,84,0.00,,CLR,0.00,0.00,VWS V14.01,2013-09-20 07:28:00,
2013-09-20 03:30:00,47.6,43.0,30.02,SSW,208,0.0,0.0,84,0.00,,-RA,0.00,0.00,VWS V14.01,2013-09-20 07:30:00,
2013-09-20 03:33:00,46.7,42.1,30.01,SSW,208,0.0,0.0,84,0.00,,CLR,0.00,0.00,VWS V14.01,2013-09-20 07:33:00,
2013-09-20 03:35:00,47.4,42.8,30.02,SSW,208,0.0,0.0,84,0.00,,-RA,0.00,0.00,VWS V14.01,2013-09-20 07:35:00,
2013-09-20 03:38:00,46.7,42.4,30.01,SSW,208,0.0,0.0,85,0.00,,CLR,0.00,0.00,VWS V14.01,2013-09-20 07:38:00,
2013-09-20 03:40:00,47.4,42.8,30.02,SSW,208,0.0,0.0,84,0.00,,-RA,0.00,0.00,VWS V14.01,2013-09-20 07:40:00,
2013-09-20 03:43:00,46.5,41.9,30.01,SSW,208,0.0,0.0,84,0.00,,CLR,0.00,0.00,VWS V14.01,2013-09-20 07:43:00,
2013-09-20 03:45:00,47.4,42.8,30.02,SSW,208,0.0,0.0,84,0.00,,-RA,0.00,0.00,VWS V14.01,2013-09-20 07:45:00,
2013-09-20 03:48:00,46.5,41.9,30.01,SSW,208,0.0,0.0,84,0.00,,CLR,0.00,0.00,VWS V14.01,2013-09-20 07:48:00,
2013-09-20 03:50:00,47.3,42.7,30.02,SSW,208,0.0,0.0,84,0.00,,-RA,0.00,0.00,VWS V14.01,2013-09-20 07:50:00,
2013-09-20 03:53:00,46.4,42.1,30.01,SSW,199,0.0,0.0,85,0.00,,CLR,0.00,0.00,VWS V14.01,2013-09-20 07:53:00,
2013-09-20 03:55:00,47.3,42.7,30.02,SSW,208,0.0,0.0,84,0.00,,-RA,0.00,0.00,VWS V14.01,2013-09-20 07:55:00,
2013-09-20 03:58:00,46.4,42.1,30.01,SSW,208,0.0,0.0,85,0.00,,CLR,0.00,0.00,VWS V14.01,2013-09-20 07:58:00,
2013-09-20 04:00:00,47.3,42.7,30.01,SSW,208,0.0,0.0,84,0.00,,-RA,0.00,0.00,VWS V14.01,2013-09-20 08:00:00,
2013-09-20 04:03:00,46.2,42.0,30.01,SSW,208,0.0,0.0,85,0.00,,CLR,0.00,0.00,VWS V14.01,2013-09-20 08:03:00,
2013-09-20 04:05:00,47.1,42.5,30.01,SSW,208,0.0,0.0,84,0.00,,-RA,0.00,0.00,VWS V14.01,2013-09-20 08:05:00,
2013-09-20 04:08:00,46.2,42.0,30.01,SSW,208,0.0,0.0,85,0.00,,CLR,0.00,0.00,VWS V14.01,2013-09-20 08:08:00,
2013-09-20 04:10:00,47.0,42.4,30.01,SSW,208,0.0,0.0,84,0.00,,-RA,0.00,0.00,VWS V14.01,2013-09-20 08:10:00,
2013-09-20 04:13:00,46.2,42.0,30.01,SSW,208,0.0,0.0,85,0.00,,CLR,0.00,0.00,VWS V14.01,2013-09-20 08:13:00,
2013-09-20 04:15:00,47.0,42.4,30.01,SSW,208,0.0,0.0,84,0.00,,-RA,0.00,0.00,VWS V14.01,2013-09-20 08:15:00,
2013-09-20 04:18:00,46.2,42.0,30.01,SSW,198,0.0,0.0,85,0.00,,CLR,0.00,0.00,VWS V14.01,2013-09-20 08:18:00,
2013-09-20 04:20:00,46.8,42.2,30.01,SSW,208,0.0,0.0,84,0.00,,-RA,0.00,0.00,VWS V14.01,2013-09-20 08:20:00,
2013-09-20 04:23:00,46.2,42.0,30.01,SSW,208,0.0,0.0,85,0.00,,CLR,0.00,0.00,VWS V14.01,2013-09-20 08:23:00,
2013-09-20 04:25:00,46.8,42.2,30.01,SSW,208,0.0,0.0,84,0.00,,-RA,0.00,0.00,VWS V14.01,2013-09-20 08:25:00,
2013-09-20 04:28:00,46.1,41.8,30.01,SSW,208,0.0,0.0,85,0.00,,CLR,0.00,0.00,VWS V14.01,2013-09-20 08:28:00,
2013-09-20 04:30:00,46.7,42.1,30.01,SSW,208,0.0,0.0,84,0.00,,-RA,0.00,0.00,VWS V14.01,2013-09-20 08:30:00,
2013-09-20 04:33:00,46.1,41.8,30.01,SSW,208,0.0,0.0,85,0.00,,FEW004,0.00,0.00,VWS V14.01,2013-09-20 08:33:00,
2013-09-20 04:35:00,46.7,42.1,30.01,SSW,208,0.0,0.0,84,0.00,,-RA,0.00,0.00,VWS V14.01,2013-09-20 08:35:00,
2013-09-20 04:38:00,46.1,41.8,30.01,SSW,208,0.0,0.0,85,0.00,,FEW004,0.00,0.00,VWS V14.01,2013-09-20 08:38:00,
2013-09-20 04:40:00,46.7,42.4,30.01,SSW,208,0.0,0.0,85,0.00,,-RA,0.00,0.00,VWS V14.01,2013-09-20 08:40:00,
2013-09-20 04:43:00,46.1,41.8,30.01,SSW,199,0.0,0.0,85,0.00,,FEW004,0.00,0.00,VWS V14.01,2013-09-20 08:43:00,
2013-09-20 04:45:00,46.5,41.9,30.01,SSW,208,0.0,0.0,84,0.00,,-RA,0.00,0.00,VWS V14.01,2013-09-20 08:45:00,
2013-09-20 04:48:00,46.0,41.8,30.01,SSW,208,0.0,0.0,85,0.00,,FEW004,0.00,0.00,VWS V14.01,2013-09-20 08:48:00,
2013-09-20 04:50:00,46.4,41.8,30.01,SSW,208,0.0,0.0,84,0.00,,-RA,0.00,0.00,VWS V14.01,2013-09-20 08:50:00,
2013-09-20 04:53:00,46.0,41.8,30.01,SSW,208,0.0,0.0,85,0.00,,FEW004,0.00,0.00,VWS V14.01,2013-09-20 08:53:00,
2013-09-20 04:55:00,46.4,42.1,30.01,SSW,208,0.0,0.0,85,0.00,,-RA,0.00,0.00,VWS V14.01,2013-09-20 08:55:00,
2013-09-20 04:58:00,45.8,41.5,30.01,SSW,208,0.0,0.0,85,0.00,,FEW004,0.00,0.00,VWS V14.01,2013-09-20 08:58:00,
2013-09-20 05:00:00,46.2,42.0,30.01,SSW,208,0.0,0.0,85,0.00,,-RA,0.00,0.00,VWS V14.01,2013-09-20 09:00:00,
2013-09-20 05:03:00,45.8,41.5,30.01,SSW,208,0.0,0.0,85,0.00,,CLR,0.00,0.00,VWS V14.01,2013-09-20 09:03:00,
2013-09-20 05:05:00,46.2,42.0,30.01,SSW,208,0.0,0.0,85,0.00,,-RA,0.00,0.00,VWS V14.01,2013-09-20 09:05:00,
2013-09-20 05:08:00,45.7,41.5,30.01,SSW,208,0.0,0.0,85,0.00,,CLR,0.00,0.00,VWS V14.01,2013-09-20 09:08:00,
2013-09-20 05:10:00,46.2,42.0,30.01,SSW,208,0.0,0.0,85,0.00,,-RA,0.00,0.00,VWS V14.01,2013-09-20 09:10:00,
2013-09-20 05:13:00,45.7,41.5,30.01,SSW,208,0.0,0.0,85,0.00,,CLR,0.00,0.00,VWS V14.01,2013-09-20 09:13:00,
2013-09-20 05:15:00,46.2,42.0,30.01,SSW,208,0.0,0.0,85,0.00,,-RA,0.00,0.00,VWS V14.01,2013-09-20 09:15:00,
2013-09-20 05:18:00,45.7,41.5,30.01,SSW,208,0.0,0.0,85,0.00,,CLR,0.00,0.00,VWS V14.01,2013-09-20 09:18:00,
2013-09-20 05:20:00,46.2,42.0,30.01,SSW,208,0.0,0.0,85,0.00,,-RA,0.00,0.00,VWS V14.01,2013-09-20 09:20:00,
2013-09-20 05:23:00,45.7,41.5,30.01,SSW,208,0.0,0.0,85,0.00,,CLR,0.00,0.00,VWS V14.01,2013-09-20 09:23:00,
2013-09-20 05:25:00,46.2,42.0,30.01,SSW,208,0.0,0.0,85,0.00,,-RA,0.00,0.00,VWS V14.01,2013-09-20 09:25:00,
2013-09-20 05:28:00,45.7,41.5,30.01,SSW,208,0.0,0.0,85,0.00,,CLR,0.00,0.00,VWS V14.01,2013-09-20 09:28:00,
2013-09-20 05:30:00,46.1,41.8,30.01,SSW,208,0.0,0.0,85,0.00,,-RA,0.00,0.00,VWS V14.01,2013-09-20 09:30:00,
2013-09-20 05:33:00,45.7,41.5,30.01,SSW,208,0.0,0.0,85,0.00,,CLR,0.00,0.00,VWS V14.01,2013-09-20 09:33:00,
2013-09-20 05:35:00,46.1,41.8,30.01,SSW,208,0.0,0.0,85,0.00,,-RA,0.00,0.00,VWS V14.01,2013-09-20 09:35:00,
2013-09-20 05:38:00,45.7,41.5,30.01,SSW,208,0.0,0.0,85,0.00,,CLR,0.00,0.00,VWS V14.01,2013-09-20 09:38:00,
2013-09-20 05:40:00,46.1,41.8,30.01,SSW,208,0.0,0.0,85,0.00,,-RA,0.00,0.00,VWS V14.01,2013-09-20 09:40:00,
2013-09-20 05:43:00,45.7,41.5,30.01,SSW,208,0.0,0.0,85,0.00,,CLR,0.00,0.00,VWS V14.01,2013-09-20 09:43:00,
2013-09-20 05:45:00,46.1,41.8,30.01,SSW,208,0.0,0.0,85,0.00,,-RA,0.00,0.00,VWS V14.01,2013-09-20 09:45:00,
2013-09-20 05:48:00,45.7,41.5,30.01,SSW,208,0.0,0.0,85,0.00,,CLR,0.00,0.00,VWS V14.01,2013-09-20 09:48:00,
2013-09-20 05:50:00,46.0,41.8,30.01,SSW,208,0.0,0.0,85,0.00,,-RA,0.00,0.00,VWS V14.01,2013-09-20 09:50:00,
2013-09-20 05:53:00,45.7,41.5,30.01,SSW,208,0.0,0.0,85,0.00,,CLR,0.00,0.00,VWS V14.01,2013-09-20 09:53:00,
2013-09-20 05:55:00,46.0,41.8,30.01,SSW,208,0.0,0.0,85,0.00,,-RA,0.00,0.00,VWS V14.01,2013-09-20 09:55:00,
2013-09-20 05:58:00,45.7,41.5,30.01,SSW,208,0.0,0.0,85,0.00,,CLR,0.00,0.00,VWS V14.01,2013-09-20 09:58:00,
2013-09-20 06:00:00,45.8,41.6,30.01,SSW,208,0.0,0.0,85,0.00,,-RA,0.00,0.00,VWS V14.01,2013-09-20 10:00:00,
2013-09-20 06:03:00,45.7,41.5,30.01,SSW,208,0.0,0.0,85,0.00,,CLR,0.00,0.00,VWS V14.01,2013-09-20 10:03:00,
2013-09-20 06:05:00,45.8,41.6,30.01,SSW,208,0.0,0.0,85,0.00,,-RA,0.00,0.00,VWS V14.01,2013-09-20 10:05:00,
2013-09-20 06:08:00,45.7,41.5,30.01,SSW,208,0.0,0.0,85,0.00,,CLR,0.00,0.00,VWS V14.01,2013-09-20 10:08:00,
2013-09-20 06:10:00,45.7,41.5,30.01,SSW,208,0.0,0.0,85,0.00,,-RA,0.00,0.00,VWS V14.01,2013-09-20 10:10:00,
2013-09-20 06:13:00,45.7,41.5,30.01,SSW,208,0.0,0.0,85,0.00,,CLR,0.00,0.00,VWS V14.01,2013-09-20 10:13:00,
2013-09-20 06:15:00,45.7,41.5,30.01,SSW,208,0.0,0.0,85,0.00,,-RA,0.00,0.00,VWS V14.01,2013-09-20 10:15:00,
2013-09-20 06:18:00,45.7,41.5,30.02,SSW,208,0.0,0.0,85,0.00,,CLR,0.00,0.00,VWS V14.01,2013-09-20 10:18:00,
2013-09-20 06:20:00,45.7,41.5,30.01,SSW,208,0.0,0.0,85,0.00,,-RA,0.00,0.00,VWS V14.01,2013-09-20 10:20:00,
2013-09-20 06:23:00,45.7,41.5,30.02,SSW,208,0.0,0.0,85,0.00,,CLR,0.00,0.00,VWS V14.01,2013-09-20 10:23:00,
2013-09-20 06:25:00,45.7,41.5,30.01,SSW,208,0.0,0.0,85,0.00,,-RA,0.00,0.00,VWS V14.01,2013-09-20 10:25:00,
2013-09-20 06:28:00,45.7,41.5,30.02,SSW,208,0.0,0.0,85,0.00,,CLR,0.00,0.00,VWS V14.01,2013-09-20 10:28:00,
2013-09-20 06:30:00,45.7,41.5,30.01,SSW,208,0.0,0.0,85,0.00,,-RA,0.00,0.00,VWS V14.01,2013-09-20 10:30:00,
2013-09-20 06:33:00,45.7,41.5,30.01,SSW,208,0.0,0.0,85,0.00,,CLR,0.00,0.00,VWS V14.01,2013-09-20 10:33:00,
2013-09-20 06:35:00,45.7,41.5,30.01,SSW,208,0.0,0.0,85,0.00,,-RA,0.00,0.00,VWS V14.01,2013-09-20 10:35:00,
2013-09-20 06:38:00,45.7,41.5,30.01,SSW,208,0.0,0.0,85,0.00,,CLR,0.00,0.00,VWS V14.01,2013-09-20 10:38:00,
2013-09-20 06:40:00,45.7,41.5,30.01,SSW,208,0.0,0.0,85,0.00,,-RA,0.00,0.00,VWS V14.01,2013-09-20 10:40:00,
2013-09-20 06:43:00,45.7,41.5,30.01,SSW,208,0.0,0.0,85,0.00,,CLR,0.00,0.00,VWS V14.01,2013-09-20 10:43:00,
2013-09-20 06:45:00,45.7,41.5,30.01,SSW,208,0.0,0.0,85,0.00,,-RA,0.00,0.00,VWS V14.01,2013-09-20 10:45:00,
2013-09-20 06:48:00,45.7,41.5,30.01,SSW,208,0.0,0.0,85,0.00,,CLR,0.00,0.00,VWS V14.01,2013-09-20 10:48:00,
2013-09-20 06:50:00,45.7,41.5,30.01,SSW,208,0.0,0.0,85,0.00,,-RA,0.00,0.00,VWS V14.01,2013-09-20 10:50:00,
2013-09-20 06:53:00,45.7,41.5,30.01,SSW,208,0.0,0.0,85,0.00,,CLR,0.00,0.00,VWS V14.01,2013-09-20 10:53:00,
2013-09-20 06:55:00,45.7,41.5,30.01,SSW,208,0.0,0.0,85,0.00,,-RA,0.00,0.00,VWS V14.01,2013-09-20 10:55:00,
2013-09-20 06:58:00,45.7,41.5,30.01,SSW,208,0.0,0.0,85,0.00,,CLR,0.00,0.00,VWS V14.01,2013-09-20 10:58:00,
2013-09-20 07:00:00,45.7,41.5,30.01,SSW,208,0.0,0.0,85,0.00,,-RA,0.00,0.00,VWS V14.01,2013-09-20 11:00:00,
2013-09-20 07:03:00,45.7,41.5,30.02,SSW,208,0.0,0.0,85,0.00,,,0.00,0.00,VWS V14.01,2013-09-20 11:03:00,
2013-09-20 07:05:00,45.7,41.5,30.01,SSW,208,0.0,0.0,85,0.00,,-RA,0.00,0.00,VWS V14.01,2013-09-20 11:05:00,
2013-09-20 07:08:00,45.7,41.5,30.02,SSW,208,0.0,0.0,85,0.00,,,0.00,0.00,VWS V14.01,2013-09-20 11:08:00,
2013-09-20 07:10:00,45.7,41.5,30.01,SSW,208,0.0,0.0,85,0.00,,-RA,0.00,0.00,VWS V14.01,2013-09-20 11:10:00,
2013-09-20 07:12:00,45.7,41.5,30.02,SSW,208,0.0,0.0,85,0.00,,,0.00,0.00,VWS V14.01,2013-09-20 11:12:00,
2013-09-20 07:15:00,45.7,41.5,30.02,SSW,208,0.0,0.0,85,0.00,,-RA,0.00,0.00,VWS V14.01,2013-09-20 11:15:00,
2013-09-20 07:17:00,45.7,41.5,30.01,SSW,208,0.0,0.0,85,0.00,,CLR,0.00,0.00,VWS V14.01,2013-09-20 11:17:00,
2013-09-20 07:20:00,45.7,41.5,30.02,SSW,208,0.0,0.0,85,0.00,,-RA,0.00,0.00,VWS V14.01,2013-09-20 11:20:00,
2013-09-20 07:22:00,45.7,41.5,30.01,SSW,208,0.0,0.0,85,0.00,,CLR,0.00,0.00,VWS V14.01,2013-09-20 11:22:00,
2013-09-20 07:25:00,45.7,41.5,30.02,SSW,208,0.0,0.0,85,0.00,,-RA,0.00,0.00,VWS V14.01,2013-09-20 11:25:00,
2013-09-20 07:28:00,45.7,41.5,30.01,SSW,208,0.0,0.0,85,0.00,,CLR,0.00,0.00,VWS V14.01,2013-09-20 11:28:00,
2013-09-20 07:30:00,45.7,41.5,30.01,SSW,208,0.0,0.0,85,0.00,,-RA,0.00,0.00,VWS V14.01,2013-09-20 11:30:00,
2013-09-20 07:33:00,45.7,41.5,30.02,SSW,208,0.0,0.0,85,0.00,,CLR,0.00,0.00,VWS V14.01,2013-09-20 11:33:00,
2013-09-20 07:35:00,45.7,41.5,30.01,SSW,208,0.0,0.0,85,0.00,,-RA,0.00,0.00,VWS V14.01,2013-09-20 11:35:00,
2013-09-20 07:38:00,45.7,41.5,30.02,SSW,208,0.0,0.0,85,0.00,,CLR,0.00,0.00,VWS V14.01,2013-09-20 11:38:00,
2013-09-20 07:40:00,45.7,41.5,30.01,SSW,208,0.0,0.0,85,0.00,,-RA,0.00,0.00,VWS V14.01,2013-09-20 11:40:00,
2013-09-20 07:43:00,45.7,41.5,30.02,SSW,208,0.0,0.0,85,0.00,,CLR,0.00,0.00,VWS V14.01,2013-09-20 11:43:00,
2013-09-20 07:45:00,45.7,41.5,30.01,SSW,208,0.0,0.0,85,0.00,,-RA,0.00,0.00,VWS V14.01,2013-09-20 11:45:00,
2013-09-20 07:48:00,45.7,41.5,30.02,SSW,208,0.0,0.0,85,0.00,,CLR,0.00,0.00,VWS V14.01,2013-09-20 11:48:00,
2013-09-20 07:50:00,45.7,41.5,30.01,SSW,208,0.0,0.0,85,0.00,,-RA,0.00,0.00,VWS V14.01,2013-09-20 11:50:00,
2013-09-20 07:53:00,45.7,41.5,30.02,SSW,208,0.0,0.0,85,0.00,,CLR,0.00,0.00,VWS V14.01,2013-09-20 11:53:00,
2013-09-20 07:55:00,45.7,41.5,30.01,SSW,208,0.0,0.0,85,0.00,,-RA,0.00,0.00,VWS V14.01,2013-09-20 11:55:00,
2013-09-20 07:58:00,45.7,41.5,30.02,SSW,208,0.0,0.0,85,0.00,,CLR,0.00,0.00,VWS V14.01,2013-09-20 11:58:00,
2013-09-20 08:00:00,45.7,41.5,30.02,SSW,208,0.0,0.0,85,0.00,,-RA,0.00,0.00,VWS V14.01,2013-09-20 12:00:00,
2013-09-20 08:03:00,45.7,41.5,30.01,SSW,208,0.0,0.0,85,0.00,,CLR,0.00,0.00,VWS V14.01,2013-09-20 12:03:00,
2013-09-20 08:05:00,45.7,41.5,30.02,SSW,208,0.0,0.0,85,0.00,,-RA,0.00,0.00,VWS V14.01,2013-09-20 12:05:00,
2013-09-20 08:08:00,45.7,41.5,30.01,SSW,208,0.0,0.0,85,0.00,,CLR,0.00,0.00,VWS V14.01,2013-09-20 12:08:00,
2013-09-20 08:10:00,45.7,41.5,30.02,SSW,208,0.0,0.0,85,0.00,,-RA,0.00,0.00,VWS V14.01,2013-09-20 12:10:00,
2013-09-20 08:13:00,45.7,41.5,30.01,SSW,208,0.0,0.0,85,0.00,,CLR,0.00,0.00,VWS V14.01,2013-09-20 12:13:00,
2013-09-20 08:15:00,45.7,41.5,30.01,SSW,208,0.0,0.0,85,0.00,,-RA,0.00,0.00,VWS V14.01,2013-09-20 12:15:00,
2013-09-20 08:18:00,45.7,41.5,30.01,SSW,208,0.0,0.0,85,0.00,,CLR,0.00,0.00,VWS V14.01,2013-09-20 12:18:00,
2013-09-20 08:20:00,45.7,41.5,30.01,SSW,208,0.0,0.0,85,0.00,,-RA,0.00,0.00,VWS V14.01,2013-09-20 12:20:00,
2013-09-20 08:23:00,45.7,41.5,30.01,SSW,208,0.0,0.0,85,0.00,,CLR,0.00,0.00,VWS V14.01,2013-09-20 12:23:00,
2013-09-20 08:25:00,45.7,41.5,30.01,SSW,208,0.0,0.0,85,0.00,,-RA,0.00,0.00,VWS V14.01,2013-09-20 12:25:00,
2013-09-20 08:28:00,45.7,41.5,30.01,SSW,208,0.0,0.0,85,0.00,,CLR,0.00,0.00,VWS V14.01,2013-09-20 12:28:00,
2013-09-20 08:30:00,45.7,41.5,30.02,SSW,208,0.0,0.0,85,0.00,,-RA,0.00,0.00,VWS V14.01,2013-09-20 12:30:00,
2013-09-20 08:33:00,45.7,41.5,30.01,SSW,208,0.0,0.0,85,0.00,,CLR,0.00,0.00,VWS V14.01,2013-09-20 12:33:00,
2013-09-20 08:35:00,45.7,41.5,30.02,SSW,208,0.0,0.0,85,0.00,,-RA,0.00,0.00,VWS V14.01,2013-09-20 12:35:00,
2013-09-20 08:38:00,45.7,41.5,30.01,SSW,208,0.0,0.0,85,0.00,,CLR,0.00,0.00,VWS V14.01,2013-09-20 12:38:00,
2013-09-20 08:40:00,45.7,41.5,30.02,SSW,208,0.0,0.0,85,0.00,,-RA,0.00,0.00,VWS V14.01,2013-09-20 12:40:00,
2013-09-20 08:43:00,45.7,41.5,30.01,SSW,208,0.0,0.0,85,0.00,,CLR,0.00,0.00,VWS V14.01,2013-09-20 12:43:00,
2013-09-20 08:45:00,45.7,41.5,30.02,SSW,208,0.0,0.0,85,0.00,,-RA,0.00,0.00,VWS V14.01,2013-09-20 12:45:00,
2013-09-20 08:48:00,45.7,41.5,30.01,SSW,208,0.0,0.0,85,0.00,,CLR,0.00,0.00,VWS V14.01,2013-09-20 12:48:00,
2013-09-20 08:50:00,45.7,41.5,30.02,SSW,208,0.0,0.0,85,0.00,,-RA,0.00,0.00,VWS V14.01,2013-09-20 12:50:00,
2013-09-20 08:53:00,55.4,52.5,30.01,SSW,208,0.0,0.0,90,0.00,,CLR,0.00,297.00,VWS V14.01,2013-09-20 12:53:00,
2013-09-20 08:55:00,45.7,41.5,30.02,SSW,208,0.0,0.0,85,0.00,,-RA,0.00,0.00,VWS V14.01,2013-09-20 12:55:00,
2013-09-20 08:58:00,56.3,53.4,30.01,SSW,208,0.0,0.0,90,0.00,,CLR,0.00,311.00,VWS V14.01,2013-09-20 12:58:00,
2013-09-20 09:00:00,45.7,41.5,30.01,SSW,208,0.0,0.0,85,0.00,,-RA,0.00,0.00,VWS V14.01,2013-09-20 13:00:00,
2013-09-20 09:03:00,57.2,54.0,30.02,SSW,208,0.0,0.0,89,0.00,,CLR,0.00,322.00,VWS V14.01,2013-09-20 13:03:00,
2013-09-20 09:05:00,45.7,41.5,30.01,SSW,208,0.0,0.0,85,0.00,,-RA,0.00,0.00,VWS V14.01,2013-09-20 13:05:00,
2013-09-20 09:08:00,58.1,54.3,30.02,SSW,208,0.0,0.0,87,0.00,,CLR,0.00,336.00,VWS V14.01,2013-09-20 13:08:00,
2013-09-20 09:10:00,45.7,41.5,30.01,SSW,208,0.0,0.0,85,0.00,,-RA,0.00,0.00,VWS V14.01,2013-09-20 13:10:00,
2013-09-20 09:13:00,58.7,54.2,30.02,SSW,208,0.0,0.0,85,0.00,,CLR,0.00,350.00,VWS V14.01,2013-09-20 13:13:00,
2013-09-20 09:15:00,45.7,41.5,30.01,SSW,208,0.0,0.0,85,0.00,,-RA,0.00,0.00,VWS V14.01,2013-09-20 13:15:00,
2013-09-20 09:18:00,59.6,54.4,30.02,SSW,208,0.0,0.0,83,0.00,,CLR,0.00,366.00,VWS V14.01,2013-09-20 13:18:00,
2013-09-20 09:20:00,45.7,41.5,30.01,SSW,208,0.0,0.0,85,0.00,,-RA,0.00,0.00,VWS V14.01,2013-09-20 13:20:00,
2013-09-20 09:23:00,60.1,54.3,30.02,SSW,208,0.0,0.0,81,0.00,,CLR,0.00,382.00,VWS V14.01,2013-09-20 13:23:00,
2013-09-20 09:25:00,45.7,41.5,30.01,SSW,208,0.0,0.0,85,0.00,,-RA,0.00,0.00,VWS V14.01,2013-09-20 13:25:00,
2013-09-20 09:28:00,60.7,53.8,30.02,SSW,208,0.0,0.0,78,0.00,,CLR,0.00,412.00,VWS V14.01,2013-09-20 13:28:00,
2013-09-20 09:30:00,45.7,41.5,30.01,SSW,208,0.0,0.0,85,0.00,,-RA,0.00,0.00,VWS V14.01,2013-09-20 13:30:00,
2013-09-20 09:33:00,61.8,54.2,30.01,SSW,208,0.0,0.0,76,0.00,,CLR,0.00,428.00,VWS V14.01,2013-09-20 13:33:00,
2013-09-20 09:35:00,45.7,41.5,30.01,SSW,208,0.0,0.0,85,0.00,,-RA,0.00,0.00,VWS V14.01,2013-09-20 13:35:00,
2013-09-20 09:38:00,62.4,53.6,30.01,SSW,208,0.0,0.0,73,0.00,,CLR,0.00,442.00,VWS V14.01,2013-09-20 13:38:00,
2013-09-20 09:40:00,45.7,41.5,30.01,SSW,208,0.0,0.0,85,0.00,,-RA,0.00,0.00,VWS V14.01,2013-09-20 13:40:00,
2013-09-20 09:43:00,63.4,53.8,30.01,SSW,208,0.0,0.0,71,0.00,,CLR,0.00,457.00,VWS V14.01,2013-09-20 13:43:00,
2013-09-20 09:45:00,45.7,41.5,30.01,SSW,208,0.0,0.0,85,0.00,,-RA,0.00,0.00,VWS V14.01,2013-09-20 13:45:00,
2013-09-20 09:48:00,64.2,53.0,30.01,SSW,208,0.0,0.0,67,0.00,,CLR,0.00,473.00,VWS V14.01,2013-09-20 13:48:00,
2013-09-20 09:50:00,45.7,41.5,30.01,SSW,208,0.0,0.0,85,0.00,,-RA,0.00,0.00,VWS V14.01,2013-09-20 13:50:00,
2013-09-20 09:53:00,64.8,52.8,30.01,SSW,208,0.0,0.0,65,0.00,,CLR,0.00,486.00,VWS V14.01,2013-09-20 13:53:00,
2013-09-20 09:55:00,55.7,52.8,30.01,SSW,208,0.0,0.0,90,0.00,,-RA,0.00,304.00,VWS V14.01,2013-09-20 13:55:00,
2013-09-20 09:58:00,64.8,52.3,30.01,SSW,208,0.0,0.0,64,0.00,,CLR,0.00,498.00,VWS V14.01,2013-09-20 13:58:00,
2013-09-20 10:00:00,56.7,53.8,30.02,SSW,208,0.0,0.0,90,0.00,,-RA,0.00,317.00,VWS V14.01,2013-09-20 14:00:00,
2013-09-20 10:03:00,65.0,52.5,30.02,SSW,208,0.0,0.0,64,0.00,,CLR,0.00,510.00,VWS V14.01,2013-09-20 14:03:00,
2013-09-20 10:05:00,57.5,53.7,30.02,SSW,208,0.0,0.0,87,0.00,,-RA,0.00,331.00,VWS V14.01,2013-09-20 14:05:00,
2013-09-20 10:08:00,65.5,52.6,30.02,SSW,208,0.0,0.0,63,0.00,,CLR,0.00,523.00,VWS V14.01,2013-09-20 14:08:00,
2013-09-20 10:10:00,58.3,53.8,30.02,SSW,208,0.0,0.0,85,0.00,,-RA,0.00,343.00,VWS V14.01,2013-09-20 14:10:00,
2013-09-20 10:13:00,65.6,52.7,30.02,SSW,208,0.0,0.0,63,0.00,,CLR,0.00,535.00,VWS V14.01,2013-09-20 14:13:00,
2013-09-20 10:15:00,59.2,54.4,30.02,SSW,208,0.0,0.0,84,0.00,,-RA,0.00,359.00,VWS V14.01,2013-09-20 14:15:00,
2013-09-20 10:18:00,66.3,53.3,30.02,SSW,208,0.0,0.0,63,0.00,,CLR,0.00,545.00,VWS V14.01,2013-09-20 14:18:00,
2013-09-20 10:20:00,59.8,54.3,30.02,SSW,208,0.0,0.0,82,0.00,,-RA,0.00,370.00,VWS V14.01,2013-09-20 14:20:00,
2013-09-20 10:23:00,66.6,52.8,30.02,SSW,208,0.0,0.0,61,0.00,,CLR,0.00,558.00,VWS V14.01,2013-09-20 14:23:00,
2013-09-20 10:25:00,60.2,54.0,30.02,SSW,208,0.0,0.0,80,0.00,,-RA,0.00,396.00,VWS V14.01,2013-09-20 14:25:00,
2013-09-20 10:28:00,66.9,53.0,30.02,SSW,208,0.0,0.0,61,0.00,,CLR,0.00,572.00,VWS V14.01,2013-09-20 14:28:00,
2013-09-20 10:30:00,61.3,54.0,30.01,SSW,208,0.0,0.0,77,0.00,,-RA,0.00,421.00,VWS V14.01,2013-09-20 14:30:00,
2013-09-20 10:33:00,67.8,54.3,30.01,SSW,208,0.0,0.0,62,0.00,,CLR,0.00,586.00,VWS V14.01,2013-09-20 14:33:00,
2013-09-20 10:35:00,62.3,54.3,30.01,SSW,208,0.0,0.0,75,0.00,,-RA,0.00,435.00,VWS V14.01,2013-09-20 14:35:00,
2013-09-20 10:38:00,68.9,53.1,30.01,SSW,206,0.0,0.0,57,0.00,,CLR,0.00,598.00,VWS V14.01,2013-09-20 14:38:00,
2013-09-20 10:40:00,62.7,53.2,30.01,SSW,208,0.0,0.0,71,0.00,,-RA,0.00,450.00,VWS V14.01,2013-09-20 14:40:00,
2013-09-20 10:42:00,69.8,53.4,30.01,SSW,206,0.0,0.0,56,0.00,,CLR,0.00,605.00,VWS V14.01,2013-09-20 14:42:00,
2013-09-20 10:45:00,64.0,53.6,30.01,SSW,208,0.0,0.0,69,0.00,,-RA,0.00,465.00,VWS V14.01,2013-09-20 14:45:00,
2013-09-20 10:47:00,69.8,53.4,30.01,SSW,206,0.0,0.0,56,0.00,,CLR,0.00,618.00,VWS V14.01,2013-09-20 14:47:00,
2013-09-20 10:50:00,64.7,53.5,30.01,SSW,208,0.0,0.0,67,0.00,,-RA,0.00,479.00,VWS V14.01,2013-09-20 14:50:00,
2013-09-20 10:52:00,69.4,52.5,30.01,SSW,206,0.0,0.0,55,0.00,,CLR,0.00,628.00,VWS V14.01,2013-09-20 14:52:00,
2013-09-20 10:55:00,64.8,52.8,30.01,SSW,208,0.0,0.0,65,0.00,,-RA,0.00,487.00,VWS V14.01,2013-09-20 14:55:00,
2013-09-20 10:57:00,69.3,53.4,30.01,SSW,206,0.0,0.0,57,0.00,,CLR,0.00,642.00,VWS V14.01,2013-09-20 14:57:00,
2013-09-20 11:00:00,64.8,52.3,30.02,SSW,208,0.0,0.0,64,0.00,,-RA,0.00,503.00,VWS V14.01,2013-09-20 15:00:00,
2013-09-20 11:02:00,69.3,52.0,30.01,ESE,117,0.0,0.0,54,0.00,,CLR,0.00,653.00,VWS V14.01,2013-09-20 15:02:00,
2013-09-20 11:05:00,65.2,52.7,30.02,SSW,208,0.0,0.0,64,0.00,,-RA,0.00,516.00,VWS V14.01,2013-09-20 15:05:00,
2013-09-20 11:07:00,69.4,52.0,30.01,ESE,117,0.0,0.0,54,0.00,,CLR,0.00,660.00,VWS V14.01,2013-09-20 15:07:00,
2013-09-20 11:10:00,65.5,52.6,30.02,SSW,208,0.0,0.0,63,0.00,,-RA,0.00,530.00,VWS V14.01,2013-09-20 15:10:00,
2013-09-20 11:12:00,70.1,50.1,30.01,SW,220,0.0,0.0,49,0.00,,CLR,0.00,672.00,VWS V14.01,2013-09-20 15:12:00,
2013-09-20 11:15:00,65.8,53.3,30.02,SSW,208,0.0,0.0,64,0.00,,-RA,0.00,542.00,VWS V14.01,2013-09-20 15:15:00,
2013-09-20 11:17:00,71.6,49.2,30.01,SSW,196,0.0,0.0,45,0.00,,CLR,0.00,695.00,VWS V14.01,2013-09-20 15:17:00,
2013-09-20 11:20:00,66.4,53.0,30.02,SSW,208,0.0,0.0,62,0.00,,-RA,0.00,552.00,VWS V14.01,2013-09-20 15:20:00,
2013-09-20 11:22:00,72.3,51.5,30.01,SSE,151,0.0,0.0,48,0.00,,CLR,0.00,676.00,VWS V14.01,2013-09-20 15:22:00,
2013-09-20 11:25:00,66.8,52.5,30.02,SSW,208,0.0,0.0,60,0.00,,-RA,0.00,565.00,VWS V14.01,2013-09-20 15:25:00,
2013-09-20 11:27:00,73.0,49.2,30.01,ESE,123,0.0,0.0,43,0.00,,CLR,0.00,695.00,VWS V14.01,2013-09-20 15:27:00,
2013-09-20 11:30:00,67.3,53.8,30.01,SSW,208,0.0,0.0,62,0.00,,-RA,0.00,579.00,VWS V14.01,2013-09-20 15:30:00,
2013-09-20 11:32:00,73.2,46.8,30.00,SSE,147,0.0,0.0,39,0.00,,CLR,0.00,699.00,VWS V14.01,2013-09-20 15:32:00,
2013-09-20 11:35:00,68.4,53.5,30.01,SSW,206,0.0,0.0,59,0.00,,-RA,0.00,591.00,VWS V14.01,2013-09-20 15:35:00,
2013-09-20 11:37:00,73.3,48.8,30.00,SSE,148,0.0,0.0,42,0.00,,CLR,0.00,709.00,VWS V14.01,2013-09-20 15:37:00,
2013-09-20 11:40:00,69.4,53.0,30.01,SSW,206,0.0,0.0,56,0.00,,-RA,0.00,600.00,VWS V14.01,2013-09-20 15:40:00,
2013-09-20 11:42:00,73.5,49.0,30.00,SSE,147,0.0,0.0,42,0.00,,CLR,0.00,714.00,VWS V14.01,2013-09-20 15:42:00,
2013-09-20 11:45:00,69.8,53.4,30.01,SSW,206,0.0,0.0,56,0.00,,-RA,0.00,611.00,VWS V14.01,2013-09-20 15:45:00,
2013-09-20 11:47:00,74.0,47.5,30.00,SSE,148,0.0,0.0,39,0.00,,CLR,0.00,720.00,VWS V14.01,2013-09-20 15:47:00,
2013-09-20 11:50:00,69.6,52.7,30.01,SSW,206,0.0,0.0,55,0.00,,-RA,0.00,621.00,VWS V14.01,2013-09-20 15:50:00,
2013-09-20 11:52:00,73.5,49.0,30.00,SW,236,6.0,7.0,42,0.00,,CLR,0.00,716.00,VWS V14.01,2013-09-20 15:52:00,
2013-09-20 11:55:00,69.3,53.0,30.01,SSW,206,0.0,0.0,56,0.00,,-RA,0.00,635.00,VWS V14.01,2013-09-20 15:55:00,
2013-09-20 11:57:00,72.8,49.0,30.00,SSW,205,0.0,0.0,43,0.00,,CLR,0.00,753.00,VWS V14.01,2013-09-20 15:57:00,
2013-09-20 12:00:00,69.3,53.0,30.01,SSW,206,0.0,0.0,56,0.00,,-RA,0.00,648.00,VWS V14.01,2013-09-20 16:00:00,
2013-09-20 12:02:00,73.3,48.8,29.99,NE,45,0.0,0.0,42,0.00,,CLR,0.00,744.00,VWS V14.01,2013-09-20 16:02:00,
2013-09-20 12:05:00,69.3,52.5,30.01,ESE,117,0.0,0.0,55,0.00,,-RA,0.00,656.00,VWS V14.01,2013-09-20 16:05:00,
2013-09-20 12:07:00,73.3,49.5,29.99,WSW,237,2.0,5.0,43,0.00,,CLR,0.00,758.00,VWS V14.01,2013-09-20 16:07:00,
2013-09-20 12:10:00,69.9,52.5,30.01,ESE,117,0.0,0.0,54,0.00,,-RA,0.00,665.00,VWS V14.01,2013-09-20 16:10:00,
2013-09-20 12:12:00,73.2,50.6,29.99,SE,145,6.0,7.0,45,0.00,,CLR,0.00,753.00,VWS V14.01,2013-09-20 16:12:00,
2013-09-20 12:15:00,70.9,50.2,30.01,South,191,0.0,0.0,48,0.00,,-RA,0.00,686.00,VWS V14.01,2013-09-20 16:15:00,
2013-09-20 12:17:00,73.9,49.4,29.99,SSE,148,0.0,0.0,42,0.00,,CLR,0.00,765.00,VWS V14.01,2013-09-20 16:17:00,
2013-09-20 12:20:00,71.8,50.5,30.01,SSE,164,0.0,0.0,47,0.00,,-RA,0.00,700.00,VWS V14.01,2013-09-20 16:20:00,
2013-09-20 12:22:00,73.9,49.4,29.99,SSE,160,0.0,3.0,42,0.00,,CLR,0.00,776.00,VWS V14.01,2013-09-20 16:22:00,
2013-09-20 12:25:00,72.7,50.8,30.01,ESE,121,0.0,0.0,46,0.00,,-RA,0.00,686.00,VWS V14.01,2013-09-20 16:25:00,
2013-09-20 12:27:00,74.4,52.3,29.99,SSE,160,0.0,0.0,46,0.00,,CLR,0.00,797.00,VWS V14.01,2013-09-20 16:27:00,
2013-09-20 12:30:00,73.2,48.8,30.00,SE,124,0.0,0.0,42,0.00,,-RA,0.00,699.00,VWS V14.01,2013-09-20 16:30:00,
2013-09-20 12:32:00,74.0,49.5,29.99,SSW,202,0.0,2.0,42,0.00,,CLR,0.00,827.00,VWS V14.01,2013-09-20 16:32:00,
2013-09-20 12:35:00,73.2,48.1,30.00,SSE,147,0.0,0.0,41,0.00,,-RA,0.00,700.00,VWS V14.01,2013-09-20 16:35:00,
2013-09-20 12:37:00,73.7,50.5,29.99,SSE,148,0.0,3.0,44,0.00,,CLR,0.00,857.00,VWS V14.01,2013-09-20 16:37:00,
2013-09-20 12:40:00,73.3,48.8,30.00,SSE,148,0.0,0.0,42,0.00,,-RA,0.00,711.00,VWS V14.01,2013-09-20 16:40:00,
2013-09-20 12:42:00,74.4,50.5,29.99,South,174,3.0,3.0,43,0.00,,CLR,0.00,801.00,VWS V14.01,2013-09-20 16:42:00,
2013-09-20 12:45:00,73.7,47.9,30.00,SSE,147,0.0,0.0,40,0.00,,-RA,0.00,716.00,VWS V14.01,2013-09-20 16:45:00,
2013-09-20 12:47:00,74.2,49.7,29.99,SW,219,0.0,2.0,42,0.00,,CLR,0.00,806.00,VWS V14.01,2013-09-20 16:47:00,
2013-09-20 12:50:00,73.9,49.4,30.00,SSW,195,0.0,0.0,42,0.00,,-RA,0.00,730.00,VWS V14.01,2013-09-20 16:50:00,
2013-09-20 12:52:00,74.6,48.7,29.99,SSW,209,0.0,5.0,40,0.00,,CLR,0.00,787.00,VWS V14.01,2013-09-20 16:52:00,
2013-09-20 12:55:00,72.7,49.5,30.00,SSW,206,0.0,6.0,44,0.00,,-RA,0.00,741.00,VWS V14.01,2013-09-20 16:55:00,
2013-09-20 12:57:00,74.6,49.4,29.99,SSW,208,1.0,5.0,41,0.00,,CLR,0.00,774.00,VWS V14.01,2013-09-20 16:57:00,
2013-09-20 13:00:00,73.0,49.2,29.99,SSW,205,0.0,0.0,43,0.00,,-RA,0.00,706.00,VWS V14.01,2013-09-20 17:00:00,
2013-09-20 13:02:00,74.4,48.5,29.99,SW,224,2.0,7.0,40,0.00,,FEW041,0.00,779.00,VWS V14.01,2013-09-20 17:02:00,
2013-09-20 13:05:00,73.5,49.7,29.99,SW,223,3.0,5.0,43,0.00,,-RA,0.00,746.00,VWS V14.01,2013-09-20 17:05:00,
2013-09-20 13:07:00,73.5,47.7,29.99,SSW,212,1.0,6.0,40,0.00,,FEW041,0.00,776.00,VWS V14.01,2013-09-20 17:07:00,
2013-09-20 13:10:00,73.0,49.2,29.99,WSW,246,0.0,5.0,43,0.00,,-RA,0.00,753.00,VWS V14.01,2013-09-20 17:10:00,
2013-09-20 13:12:00,73.9,48.1,29.99,SW,215,0.0,2.0,40,0.00,,FEW041,0.00,760.00,VWS V14.01,2013-09-20 17:12:00,
2013-09-20 13:15:00,73.5,47.7,29.99,SSE,148,0.0,2.0,40,0.00,,-RA,0.00,753.00,VWS V14.01,2013-09-20 17:15:00,
2013-09-20 13:17:00,74.2,47.7,29.98,North,350,4.0,5.0,39,0.00,,FEW041,0.00,764.00,VWS V14.01,2013-09-20 17:17:00,
2013-09-20 13:20:00,73.7,49.2,29.99,South,181,0.0,1.0,42,0.00,,-RA,0.00,757.00,VWS V14.01,2013-09-20 17:20:00,
2013-09-20 13:22:00,74.7,49.5,29.98,SSE,155,0.0,5.0,41,0.00,,FEW041,0.00,753.00,VWS V14.01,2013-09-20 17:22:00,
2013-09-20 13:25:00,74.0,50.1,29.99,SSE,160,0.0,0.0,43,0.00,,-RA,0.00,776.00,VWS V14.01,2013-09-20 17:25:00,
2013-09-20 13:27:00,75.4,48.0,29.98,SW,230,2.0,6.0,38,0.00,,FEW041,0.00,750.00,VWS V14.01,2013-09-20 17:27:00,
2013-09-20 13:30:00,74.0,48.8,29.99,SSW,209,0.0,6.0,41,0.00,,-RA,0.00,827.00,VWS V14.01,2013-09-20 17:30:00,
2013-09-20 13:32:00,74.9,47.6,29.98,WSW,250,7.0,7.0,38,0.00,,FEW041,0.00,753.00,VWS V14.01,2013-09-20 17:32:00,
2013-09-20 13:35:00,73.9,50.6,29.99,SSW,202,0.0,0.0,44,0.00,,-RA,0.00,287.00,VWS V14.01,2013-09-20 17:35:00,
2013-09-20 13:37:00,74.9,47.6,29.98,ESE,109,0.0,5.0,38,0.00,,FEW041,0.00,746.00,VWS V14.01,2013-09-20 17:37:00,
2013-09-20 13:40:00,73.9,50.0,29.99,SSE,150,0.0,2.0,43,0.00,,-RA,0.00,834.00,VWS V14.01,2013-09-20 17:40:00,
2013-09-20 13:42:00,75.4,48.8,29.98,SSE,162,6.0,8.0,39,0.00,,FEW041,0.00,741.00,VWS V14.01,2013-09-20 17:42:00,
2013-09-20 13:45:00,74.0,49.5,29.99,SW,219,0.0,11.0,42,0.00,,-RA,0.00,813.00,VWS V14.01,2013-09-20 17:45:00,
2013-09-20 13:47:00,75.3,47.3,29.97,SSE,148,0.0,7.0,37,0.00,,FEW041,0.00,743.00,VWS V14.01,2013-09-20 17:47:00,
2013-09-20 13:50:00,74.6,48.7,29.99,SW,215,2.0,8.0,40,0.00,,-RA,0.00,795.00,VWS V14.01,2013-09-20 17:50:00,
2013-09-20 13:52:00,76.0,48.6,29.97,SSE,151,1.0,2.0,38,0.00,,FEW041,0.00,735.00,VWS V14.01,2013-09-20 17:52:00,
2013-09-20 13:55:00,74.4,49.8,29.99,SW,222,0.0,6.0,42,0.00,,-RA,0.00,781.00,VWS V14.01,2013-09-20 17:55:00,
2013-09-20 13:57:00,75.3,48.0,29.97,WSW,237,3.0,7.0,38,0.00,,FEW041,0.00,739.00,VWS V14.01,2013-09-20 17:57:00,
2013-09-20 14:00:00,74.6,48.7,29.99,SSW,209,3.0,3.0,40,0.00,,-RA,0.00,779.00,VWS V14.01,2013-09-20 18:00:00,
2013-09-20 14:02:00,75.3,48.0,29.96,SW,222,1.0,6.0,38,0.00,,CLR,0.00,734.00,VWS V14.01,2013-09-20 18:02:00,
2013-09-20 14:05:00,73.9,48.1,29.99,SW,219,3.0,4.0,40,0.00,,-RA,0.00,779.00,VWS V14.01,2013-09-20 18:05:00,
2013-09-20 14:07:00,75.6,48.2,29.96,SW,222,2.0,7.0,38,0.00,,CLR,0.00,716.00,VWS V14.01,2013-09-20 18:07:00,
2013-09-20 14:10:00,73.5,48.4,29.99,SW,215,0.0,2.0,41,0.00,,-RA,0.00,765.00,VWS V14.01,2013-09-20 18:10:00,
2013-09-20 14:12:00,75.3,48.0,29.96,SSW,212,1.0,3.0,38,0.00,,CLR,0.00,699.00,VWS V14.01,2013-09-20 18:12:00,
2013-09-20 14:15:00,74.0,48.2,29.98,SSW,209,0.0,0.0,40,0.00,,-RA,0.00,771.00,VWS V14.01,2013-09-20 18:15:00,
2013-09-20 14:17:00,75.3,48.0,29.96,SSW,208,1.0,6.0,38,0.00,,CLR,0.00,714.00,VWS V14.01,2013-09-20 18:17:00,
2013-09-20 14:20:00,74.2,48.3,29.98,North,350,0.0,0.0,40,0.00,,-RA,0.00,767.00,VWS V14.01,2013-09-20 18:20:00,
2013-09-20 14:22:00,75.6,48.2,29.96,SSW,202,7.0,10.0,38,0.00,,CLR,0.00,699.00,VWS V14.01,2013-09-20 18:22:00,
2013-09-20 14:25:00,75.3,48.7,29.98,SE,124,0.0,2.0,39,0.00,,-RA,0.00,757.00,VWS V14.01,2013-09-20 18:25:00,
2013-09-20 14:27:00,75.3,48.7,29.96,SSW,203,0.0,0.0,39,0.00,,CLR,0.00,693.00,VWS V14.01,2013-09-20 18:27:00,
2013-09-20 14:30:00,75.4,48.0,29.98,SW,216,0.0,8.0,38,0.00,,-RA,0.00,755.00,VWS V14.01,2013-09-20 18:30:00,
2013-09-20 14:32:00,76.1,47.2,29.96,SSW,206,2.0,5.0,36,0.00,,CLR,0.00,695.00,VWS V14.01,2013-09-20 18:32:00,
2013-09-20 14:35:00,74.7,48.1,29.98,South,174,0.0,5.0,39,0.00,,-RA,0.00,746.00,VWS V14.01,2013-09-20 18:35:00,
2013-09-20 14:37:00,76.3,47.4,29.96,SW,219,5.0,7.0,36,0.00,,CLR,0.00,691.00,VWS V14.01,2013-09-20 18:37:00,
2013-09-20 14:40:00,75.3,48.0,29.98,ESE,109,0.0,2.0,38,0.00,,-RA,0.00,750.00,VWS V14.01,2013-09-20 18:40:00,
2013-09-20 14:42:00,76.7,47.0,29.96,South,178,1.0,7.0,35,0.00,,CLR,0.00,662.00,VWS V14.01,2013-09-20 18:42:00,
2013-09-20 14:45:00,75.4,48.0,29.97,SSE,147,0.0,3.0,38,0.00,,-RA,0.00,741.00,VWS V14.01,2013-09-20 18:45:00,
2013-09-20 14:47:00,76.5,46.8,29.96,SSE,168,0.0,1.0,35,0.00,,CLR,0.00,656.00,VWS V14.01,2013-09-20 18:47:00,
2013-09-20 14:50:00,75.6,48.2,29.97,SSE,148,0.0,0.0,38,0.00,,-RA,0.00,741.00,VWS V14.01,2013-09-20 18:50:00,
2013-09-20 14:52:00,76.7,47.8,29.96,SSE,164,0.0,0.0,36,0.00,,CLR,0.00,663.00,VWS V14.01,2013-09-20 18:52:00,
2013-09-20 14:55:00,75.8,47.7,29.97,SW,215,5.0,7.0,37,0.00,,-RA,0.00,734.00,VWS V14.01,2013-09-20 18:55:00,
2013-09-20 14:57:00,76.1,46.5,29.96,SSW,199,1.0,4.0,35,0.00,,CLR,0.00,649.00,VWS V14.01,2013-09-20 18:57:00,
2013-09-20 15:00:00,75.1,48.5,29.96,South,171,0.0,2.0,39,0.00,,-RA,0.00,730.00,VWS V14.01,2013-09-20 19:00:00,
2013-09-20 15:02:00,76.0,47.2,29.95,SE,143,0.0,5.0,36,0.00,,CLR,0.00,626.00,VWS V14.01,2013-09-20 19:02:00,
2013-09-20 15:05:00,75.6,48.2,29.96,SW,222,0.0,0.0,38,0.00,,-RA,0.00,725.00,VWS V14.01,2013-09-20 19:05:00,
2013-09-20 15:07:00,76.1,46.5,29.95,SSE,152,1.0,6.0,35,0.00,,CLR,0.00,623.00,VWS V14.01,2013-09-20 19:07:00,
2013-09-20 15:10:00,75.4,46.6,29.96,SSW,208,2.0,8.0,36,0.00,,-RA,0.00,693.00,VWS V14.01,2013-09-20 19:10:00,
2013-09-20 15:12:00,76.1,46.5,29.95,SSE,147,2.0,2.0,35,0.00,,CLR,0.00,609.00,VWS V14.01,2013-09-20 19:12:00,
2013-09-20 15:15:00,75.1,47.1,29.96,SSE,152,8.0,8.0,37,0.00,,-RA,0.00,713.00,VWS V14.01,2013-09-20 19:15:00,
2013-09-20 15:17:00,76.1,47.2,29.95,SE,141,0.0,2.0,36,0.00,,CLR,0.00,595.00,VWS V14.01,2013-09-20 19:17:00,
2013-09-20 15:20:00,75.3,48.0,29.96,SE,137,0.0,8.0,38,0.00,,-RA,0.00,707.00,VWS V14.01,2013-09-20 19:20:00,
2013-09-20 15:22:00,75.3,46.5,29.95,SSE,151,5.0,7.0,36,0.00,,CLR,0.00,593.00,VWS V14.01,2013-09-20 19:22:00,
2013-09-20 15:25:00,75.3,48.0,29.96,SSW,205,0.0,5.0,38,0.00,,-RA,0.00,695.00,VWS V14.01,2013-09-20 19:25:00,
2013-09-20 15:27:00,75.6,47.5,29.95,South,188,0.0,5.0,37,0.00,,CLR,0.00,549.00,VWS V14.01,2013-09-20 19:27:00,
2013-09-20 15:30:00,75.8,48.4,29.96,South,182,0.0,0.0,38,0.00,,-RA,0.00,695.00,VWS V14.01,2013-09-20 19:30:00,
2013-09-20 15:32:00,75.8,47.7,29.95,South,172,0.0,3.0,37,0.00,,CLR,0.00,563.00,VWS V14.01,2013-09-20 19:32:00,
2013-09-20 15:35:00,76.3,48.1,29.96,SSE,162,2.0,3.0,37,0.00,,-RA,0.00,693.00,VWS V14.01,2013-09-20 19:35:00,
2013-09-20 15:37:00,76.1,46.5,29.95,ESE,106,1.0,5.0,35,0.00,,CLR,0.00,563.00,VWS V14.01,2013-09-20 19:37:00,
2013-09-20 15:40:00,76.5,49.0,29.96,SE,126,0.0,6.0,38,0.00,,-RA,0.00,653.00,VWS V14.01,2013-09-20 19:40:00,
2013-09-20 15:42:00,76.5,47.6,29.95,South,169,6.0,6.0,36,0.00,,CLR,0.00,547.00,VWS V14.01,2013-09-20 19:42:00,
2013-09-20 15:45:00,76.5,46.1,29.96,SSE,168,0.0,7.0,34,0.00,,-RA,0.00,656.00,VWS V14.01,2013-09-20 19:45:00,
2013-09-20 15:47:00,76.0,46.4,29.95,SSE,155,0.0,1.0,35,0.00,,CLR,0.00,531.00,VWS V14.01,2013-09-20 19:47:00,
2013-09-20 15:50:00,76.5,46.8,29.96,SSE,164,0.0,2.0,35,0.00,,-RA,0.00,663.00,VWS V14.01,2013-09-20 19:50:00,
2013-09-20 15:52:00,76.0,45.6,29.95,SSW,213,1.0,12.0,34,0.00,,CLR,0.00,533.00,VWS V14.01,2013-09-20 19:52:00,
2013-09-20 15:55:00,76.5,46.8,29.96,SW,226,2.0,10.0,35,0.00,,-RA,0.00,649.00,VWS V14.01,2013-09-20 19:55:00,
2013-09-20 15:57:00,76.0,43.2,29.95,SW,220,3.0,6.0,31,0.00,,CLR,0.00,509.00,VWS V14.01,2013-09-20 19:57:00,
2013-09-20 16:00:00,76.0,47.9,29.95,SSW,200,0.0,2.0,37,0.00,,-RA,0.00,635.00,VWS V14.01,2013-09-20 20:00:00,
2013-09-20 16:02:00,76.5,46.1,29.94,SE,130,6.0,6.0,34,0.00,,CLR,0.00,503.00,VWS V14.01,2013-09-20 20:02:00,
2013-09-20 16:05:00,76.1,46.5,29.95,SSE,147,1.0,6.0,35,0.00,,-RA,0.00,625.00,VWS V14.01,2013-09-20 20:05:00,
2013-09-20 16:07:00,76.5,46.1,29.94,SSE,158,0.0,2.0,34,0.00,,CLR,0.00,489.00,VWS V14.01,2013-09-20 20:07:00,
2013-09-20 16:10:00,76.1,47.2,29.95,SSE,152,0.0,0.0,36,0.00,,-RA,0.00,593.00,VWS V14.01,2013-09-20 20:10:00,
2013-09-20 16:12:00,76.3,46.7,29.94,WSW,253,2.0,5.0,35,0.00,,CLR,0.00,465.00,VWS V14.01,2013-09-20 20:12:00,
2013-09-20 16:15:00,76.0,47.2,29.95,SE,140,0.0,1.0,36,0.00,,-RA,0.00,604.00,VWS V14.01,2013-09-20 20:15:00,
2013-09-20 16:17:00,76.1,46.5,29.94,SSE,147,0.0,6.0,35,0.00,,CLR,0.00,459.00,VWS V14.01,2013-09-20 20:17:00,
2013-09-20 16:20:00,75.6,46.0,29.95,SSE,150,2.0,11.0,35,0.00,,-RA,0.00,595.00,VWS V14.01,2013-09-20 20:20:00,
2013-09-20 16:22:00,76.5,46.8,29.94,SSE,155,0.0,0.0,35,0.00,,CLR,0.00,449.00,VWS V14.01,2013-09-20 20:22:00,
2013-09-20 16:25:00,75.3,47.3,29.95,SSE,152,0.0,6.0,37,0.00,,-RA,0.00,582.00,VWS V14.01,2013-09-20 20:25:00,
2013-09-20 16:27:00,76.1,45.7,29.94,SSE,151,0.0,8.0,34,0.00,,CLR,0.00,431.00,VWS V14.01,2013-09-20 20:27:00,
2013-09-20 16:30:00,75.6,46.8,29.95,SSE,148,0.0,6.0,36,0.00,,-RA,0.00,563.00,VWS V14.01,2013-09-20 20:30:00,
2013-09-20 16:32:00,76.1,46.5,29.93,WSW,241,8.0,8.0,35,0.00,,CLR,0.00,424.00,VWS V14.01,2013-09-20 20:32:00,
2013-09-20 16:35:00,76.0,47.2,29.95,SSW,212,2.0,2.0,36,0.00,,-RA,0.00,570.00,VWS V14.01,2013-09-20 20:35:00,
2013-09-20 16:37:00,75.8,47.0,29.93,SSE,168,0.0,7.0,36,0.00,,CLR,0.00,403.00,VWS V14.01,2013-09-20 20:37:00,
2013-09-20 16:40:00,76.3,47.4,29.95,SSW,212,2.0,4.0,36,0.00,,-RA,0.00,554.00,VWS V14.01,2013-09-20 20:40:00,
2013-09-20 16:42:00,76.0,45.6,29.93,SSW,192,0.0,6.0,34,0.00,,CLR,0.00,391.00,VWS V14.01,2013-09-20 20:42:00,
2013-09-20 16:45:00,76.1,47.2,29.95,SSE,161,6.0,6.0,36,0.00,,-RA,0.00,533.00,VWS V14.01,2013-09-20 20:45:00,
2013-09-20 16:47:00,76.0,45.6,29.93,SE,133,1.0,6.0,34,0.00,,CLR,0.00,373.00,VWS V14.01,2013-09-20 20:47:00,
2013-09-20 16:50:00,76.0,46.4,29.95,SE,131,0.0,2.0,35,0.00,,-RA,0.00,535.00,VWS V14.01,2013-09-20 20:50:00,
2013-09-20 16:52:00,75.6,46.8,29.93,South,188,0.0,3.0,36,0.00,,CLR,0.00,354.00,VWS V14.01,2013-09-20 20:52:00,
2013-09-20 16:55:00,76.0,45.6,29.95,South,188,1.0,6.0,34,0.00,,-RA,0.00,524.00,VWS V14.01,2013-09-20 20:55:00,
2013-09-20 16:57:00,75.8,47.0,29.93,South,179,0.0,1.0,36,0.00,,CLR,0.00,317.00,VWS V14.01,2013-09-20 20:57:00,
2013-09-20 17:00:00,76.1,44.9,29.94,SSW,213,0.0,0.0,33,0.00,,-RA,0.00,505.00,VWS V14.01,2013-09-20 21:00:00,
2013-09-20 17:02:00,75.8,47.0,29.94,SE,134,8.0,8.0,36,0.00,,CLR,0.00,327.00,VWS V14.01,2013-09-20 21:02:00,
2013-09-20 17:05:00,76.5,45.3,29.94,South,178,0.0,8.0,33,0.00,,-RA,0.00,493.00,VWS V14.01,2013-09-20 21:05:00,
2013-09-20 17:07:00,75.8,47.0,29.94,SE,143,2.0,5.0,36,0.00,,CLR,0.00,311.00,VWS V14.01,2013-09-20 21:07:00,
2013-09-20 17:10:00,76.5,45.3,29.94,SSW,206,4.0,8.0,33,0.00,,-RA,0.00,480.00,VWS V14.01,2013-09-20 21:10:00,
2013-09-20 17:12:00,76.0,47.2,29.94,WSW,254,3.0,5.0,36,0.00,,CLR,0.00,289.00,VWS V14.01,2013-09-20 21:12:00,
2013-09-20 17:15:00,76.3,45.9,29.94,SSW,199,6.0,8.0,34,0.00,,-RA,0.00,463.00,VWS V14.01,2013-09-20 21:15:00,
2013-09-20 17:17:00,75.6,46.8,29.94,SSW,200,0.0,3.0,36,0.00,,CLR,0.00,257.00,VWS V14.01,2013-09-20 21:17:00,
2013-09-20 17:20:00,76.3,46.7,29.94,SSE,148,0.0,2.0,35,0.00,,-RA,0.00,452.00,VWS V14.01,2013-09-20 21:20:00,
2013-09-20 17:22:00,75.4,46.6,29.94,SE,144,0.0,3.0,36,0.00,,CLR,0.00,252.00,VWS V14.01,2013-09-20 21:22:00,
2013-09-20 17:25:00,76.3,46.7,29.94,SSE,154,0.0,3.0,35,0.00,,-RA,0.00,435.00,VWS V14.01,2013-09-20 21:25:00,
2013-09-20 17:27:00,75.6,46.8,29.94,SSW,198,0.0,0.0,36,0.00,,CLR,0.00,246.00,VWS V14.01,2013-09-20 21:27:00,
2013-09-20 17:30:00,76.1,46.5,29.93,SSE,151,0.0,0.0,35,0.00,,-RA,0.00,426.00,VWS V14.01,2013-09-20 21:30:00,
2013-09-20 17:32:00,75.6,46.8,29.93,SSE,165,2.0,2.0,36,0.00,,CLR,0.00,227.00,VWS V14.01,2013-09-20 21:32:00,
2013-09-20 17:35:00,76.0,46.4,29.93,SE,131,0.0,7.0,35,0.00,,-RA,0.00,406.00,VWS V14.01,2013-09-20 21:35:00,
2013-09-20 17:37:00,75.1,47.8,29.93,SW,224,5.0,6.0,38,0.00,,CLR,0.00,215.00,VWS V14.01,2013-09-20 21:37:00,
2013-09-20 17:40:00,75.8,46.2,29.93,SW,220,3.0,6.0,35,0.00,,-RA,0.00,398.00,VWS V14.01,2013-09-20 21:40:00,
2013-09-20 17:42:00,74.9,48.3,29.93,SE,140,0.0,6.0,39,0.00,,CLR,0.00,201.00,VWS V14.01,2013-09-20 21:42:00,
2013-09-20 17:45:00,76.0,45.6,29.93,SW,220,3.0,5.0,34,0.00,,-RA,0.00,380.00,VWS V14.01,2013-09-20 21:45:00,
2013-09-20 17:47:00,74.9,47.6,29.93,SE,143,0.0,3.0,38,0.00,,CLR,0.00,178.00,VWS V14.01,2013-09-20 21:47:00,
2013-09-20 17:50:00,75.4,45.9,29.93,South,178,0.0,8.0,35,0.00,,-RA,0.00,362.00,VWS V14.01,2013-09-20 21:50:00,
2013-09-20 17:52:00,74.9,48.3,29.93,SE,143,0.0,0.0,39,0.00,,CLR,0.00,162.00,VWS V14.01,2013-09-20 21:52:00,
2013-09-20 17:55:00,75.8,46.2,29.93,South,179,0.0,2.0,35,0.00,,-RA,0.00,340.00,VWS V14.01,2013-09-20 21:55:00,
2013-09-20 17:57:00,74.7,48.1,29.93,SE,143,0.0,1.0,39,0.00,,CLR,0.00,132.00,VWS V14.01,2013-09-20 21:57:00,
2013-09-20 18:00:00,75.8,47.7,29.94,South,169,0.0,0.0,37,0.00,,-RA,0.00,326.00,VWS V14.01,2013-09-20 22:00:00,
2013-09-20 18:02:00,74.6,48.0,29.93,SE,143,0.0,0.0,39,0.00,,CLR,0.00,99.00,VWS V14.01,2013-09-20 22:02:00,
2013-09-20 18:05:00,75.8,47.7,29.94,SSE,148,0.0,2.0,37,0.00,,-RA,0.00,313.00,VWS V14.01,2013-09-20 22:05:00,
2013-09-20 18:07:00,74.0,48.2,29.93,SE,143,0.0,0.0,40,0.00,,CLR,0.00,69.00,VWS V14.01,2013-09-20 22:07:00,
2013-09-20 18:10:00,75.8,47.0,29.94,SE,143,0.0,0.0,36,0.00,,-RA,0.00,297.00,VWS V14.01,2013-09-20 22:10:00,
2013-09-20 18:12:00,73.9,48.7,29.93,SE,143,0.0,0.0,41,0.00,,CLR,0.00,95.00,VWS V14.01,2013-09-20 22:12:00,
2013-09-20 18:15:00,75.8,46.2,29.94,SW,215,0.0,3.0,35,0.00,,-RA,0.00,269.00,VWS V14.01,2013-09-20 22:15:00,
2013-09-20 18:17:00,73.7,49.2,29.93,SE,143,0.0,0.0,42,0.00,,CLR,0.00,99.00,VWS V14.01,2013-09-20 22:17:00,
2013-09-20 18:20:00,75.4,46.6,29.94,SSW,213,0.0,0.0,36,0.00,,-RA,0.00,262.00,VWS V14.01,2013-09-20 22:20:00,
2013-09-20 18:22:00,73.2,49.4,29.93,SE,143,0.0,0.0,43,0.00,,CLR,0.00,90.00,VWS V14.01,2013-09-20 22:22:00,
2013-09-20 18:25:00,75.6,47.5,29.94,SSW,198,0.0,3.0,37,0.00,,-RA,0.00,253.00,VWS V14.01,2013-09-20 22:25:00,
2013-09-20 18:27:00,73.0,49.8,29.93,SE,143,0.0,0.0,44,0.00,,CLR,0.00,77.00,VWS V14.01,2013-09-20 22:27:00,
2013-09-20 18:30:00,75.6,46.8,29.93,SSW,200,0.0,5.0,36,0.00,,-RA,0.00,236.00,VWS V14.01,2013-09-20 22:30:00,
2013-09-20 18:32:00,72.7,50.2,29.93,SE,143,0.0,0.0,45,0.00,,CLR,0.00,33.00,VWS V14.01,2013-09-20 22:32:00,
2013-09-20 18:35:00,75.3,47.3,29.93,WSW,239,0.0,5.0,37,0.00,,-RA,0.00,218.00,VWS V14.01,2013-09-20 22:35:00,
2013-09-20 18:37:00,72.3,50.4,29.93,SE,143,0.0,0.0,46,0.00,,CLR,0.00,30.00,VWS V14.01,2013-09-20 22:37:00,
2013-09-20 18:40:00,74.9,47.6,29.93,WSW,243,0.0,6.0,38,0.00,,-RA,0.00,204.00,VWS V14.01,2013-09-20 22:40:00,
2013-09-20 18:42:00,71.8,50.5,29.93,SE,143,0.0,0.0,47,0.00,,CLR,0.00,21.00,VWS V14.01,2013-09-20 22:42:00,
2013-09-20 18:45:00,74.9,48.3,29.93,SE,140,0.0,0.0,39,0.00,,-RA,0.00,187.00,VWS V14.01,2013-09-20 22:45:00,
2013-09-20 18:47:00,71.5,50.8,29.93,SE,143,0.0,0.0,48,0.00,,CLR,0.00,14.00,VWS V14.01,2013-09-20 22:47:00,
2013-09-20 18:50:00,74.9,48.3,29.93,SE,143,0.0,1.0,39,0.00,,-RA,0.00,169.00,VWS V14.01,2013-09-20 22:50:00,
2013-09-20 18:52:00,70.9,51.3,29.93,SE,143,0.0,0.0,50,0.00,,CLR,0.00,9.00,VWS V14.01,2013-09-20 22:52:00,
2013-09-20 18:55:00,74.9,48.3,29.93,SE,143,0.0,0.0,39,0.00,,-RA,0.00,137.00,VWS V14.01,2013-09-20 22:55:00,
2013-09-20 18:57:00,70.4,51.4,29.93,SE,143,0.0,0.0,51,0.00,,CLR,0.00,0.00,VWS V14.01,2013-09-20 22:57:00,
2013-09-20 19:00:00,74.7,48.8,29.93,SE,143,0.0,0.0,40,0.00,,-RA,0.00,111.00,VWS V14.01,2013-09-20 23:00:00,
2013-09-20 19:02:00,69.8,51.9,29.93,SE,143,0.0,0.0,53,0.00,,CLR,0.00,0.00,VWS V14.01,2013-09-20 23:02:00,
2013-09-20 19:05:00,74.2,48.3,29.93,SE,143,0.0,0.0,40,0.00,,-RA,0.00,69.00,VWS V14.01,2013-09-20 23:05:00,
2013-09-20 19:07:00,69.1,51.8,29.93,SE,143,0.0,0.0,54,0.00,,CLR,0.00,0.00,VWS V14.01,2013-09-20 23:07:00,
2013-09-20 19:10:00,74.0,48.8,29.93,SE,143,0.0,0.0,41,0.00,,-RA,0.00,93.00,VWS V14.01,2013-09-20 23:10:00,
2013-09-20 19:12:00,68.6,51.8,29.93,SE,143,0.0,0.0,55,0.00,,CLR,0.00,0.00,VWS V14.01,2013-09-20 23:12:00,
2013-09-20 19:15:00,73.7,49.2,29.93,SE,143,0.0,0.0,42,0.00,,-RA,0.00,95.00,VWS V14.01,2013-09-20 23:15:00,
2013-09-20 19:17:00,67.9,51.6,29.93,SE,143,0.0,0.0,56,0.00,,CLR,0.00,0.00,VWS V14.01,2013-09-20 23:17:00,
2013-09-20 19:20:00,73.3,49.5,29.93,SE,143,0.0,0.0,43,0.00,,-RA,0.00,95.00,VWS V14.01,2013-09-20 23:20:00,
2013-09-20 19:22:00,67.4,52.1,29.93,SE,143,0.0,0.0,58,0.00,,CLR,0.00,0.00,VWS V14.01,2013-09-20 23:22:00,
2013-09-20 19:25:00,73.2,50.0,29.93,SE,143,0.0,0.0,44,0.00,,-RA,0.00,83.00,VWS V14.01,2013-09-20 23:25:00,
2013-09-20 19:27:00,66.9,51.7,29.93,SE,141,0.0,0.0,58,0.00,,CLR,0.00,0.00,VWS V14.01,2013-09-20 23:27:00,
2013-09-20 19:30:00,72.8,50.2,29.93,SE,143,0.0,0.0,45,0.00,,-RA,0.00,42.00,VWS V14.01,2013-09-20 23:30:00,
2013-09-20 19:32:00,66.8,52.0,29.92,SE,141,0.0,2.0,59,0.00,,CLR,0.00,0.00,VWS V14.01,2013-09-20 23:32:00,
2013-09-20 19:35:00,72.5,50.6,29.93,SE,143,0.0,0.0,46,0.00,,-RA,0.00,30.00,VWS V14.01,2013-09-20 23:35:00,
2013-09-20 19:37:00,66.6,52.3,29.92,East,97,0.0,3.0,60,0.00,,CLR,0.00,0.00,VWS V14.01,2013-09-20 23:37:00,
2013-09-20 19:40:00,72.0,50.7,29.93,SE,143,0.0,0.0,47,0.00,,-RA,0.00,25.00,VWS V14.01,2013-09-20 23:40:00,
2013-09-20 19:42:00,66.4,52.1,29.92,SE,145,0.0,0.0,60,0.00,,CLR,0.00,0.00,VWS V14.01,2013-09-20 23:42:00,
2013-09-20 19:45:00,71.6,50.9,29.93,SE,143,0.0,0.0,48,0.00,,-RA,0.00,16.00,VWS V14.01,2013-09-20 23:45:00,
2013-09-20 19:47:00,66.3,52.0,29.92,SSE,147,0.0,0.0,60,0.00,,CLR,0.00,0.00,VWS V14.01,2013-09-20 23:47:00,
2013-09-20 19:50:00,71.1,51.0,29.93,SE,143,0.0,0.0,49,0.00,,-RA,0.00,11.00,VWS V14.01,2013-09-20 23:50:00,
2013-09-20 19:52:00,66.1,52.3,29.92,South,172,0.0,7.0,61,0.00,,CLR,0.00,0.00,VWS V14.01,2013-09-20 23:52:00,
2013-09-20 19:55:00,70.6,51.6,29.93,SE,143,0.0,0.0,51,0.00,,-RA,0.00,7.00,VWS V14.01,2013-09-20 23:55:00,
2013-09-20 19:57:00,66.0,52.2,29.92,SE,127,0.0,0.0,61,0.00,,CLR,0.00,0.00,VWS V14.01,2013-09-20 23:57:00,
2013-09-20 20:00:00,69.9,51.5,29.93,SE,143,0.0,0.0,52,0.00,,-RA,0.00,0.00,VWS V14.01,2013-09-21 00:00:00,
2013-09-20 20:02:00,65.8,52.0,29.92,SE,128,0.0,9.0,61,0.00,,CLR,0.00,0.00,VWS V14.01,2013-09-21 00:02:00,
2013-09-20 20:05:00,69.3,52.0,29.93,SE,143,0.0,0.0,54,0.00,,-RA,0.00,0.00,VWS V14.01,2013-09-21 00:05:00,
2013-09-20 20:07:00,65.8,52.4,29.92,SE,130,0.0,0.0,62,0.00,,CLR,0.00,0.00,VWS V14.01,2013-09-21 00:07:00,
2013-09-20 20:10:00,68.8,51.5,29.93,SE,143,0.0,0.0,54,0.00,,-RA,0.00,0.00,VWS V14.01,2013-09-21 00:10:00,
2013-09-20 20:12:00,65.5,52.2,29.92,SE,130,0.0,0.0,62,0.00,,CLR,0.00,0.00,VWS V14.01,2013-09-21 00:12:00,
2013-09-20 20:15:00,68.3,52.0,29.93,SE,143,0.0,0.0,56,0.00,,-RA,0.00,0.00,VWS V14.01,2013-09-21 00:15:00,
2013-09-20 20:17:00,65.3,52.0,29.93,SE,143,0.0,0.0,62,0.00,,CLR,0.00,0.00,VWS V14.01,2013-09-21 00:17:00,
2013-09-20 20:20:00,67.6,51.8,29.93,SE,143,0.0,0.0,57,0.00,,-RA,0.00,0.00,VWS V14.01,2013-09-21 00:20:00,
2013-09-20 20:22:00,65.2,52.3,29.93,SE,143,0.0,0.0,63,0.00,,CLR,0.00,0.00,VWS V14.01,2013-09-21 00:22:00,
2013-09-20 20:25:00,67.1,51.8,29.93,SE,141,0.0,5.0,58,0.00,,-RA,0.00,0.00,VWS V14.01,2013-09-21 00:25:00,
2013-09-20 20:27:00,64.8,52.3,29.93,SE,143,0.0,0.0,64,0.00,,CLR,0.00,0.00,VWS V14.01,2013-09-21 00:27:00,
2013-09-20 20:30:00,66.8,52.0,29.92,SE,141,0.0,0.0,59,0.00,,-RA,0.00,0.00,VWS V14.01,2013-09-21 00:30:00,
2013-09-20 20:32:00,64.5,52.5,29.93,SE,143,0.0,0.0,65,0.00,,CLR,0.00,0.00,VWS V14.01,2013-09-21 00:32:00,
2013-09-20 20:35:00,66.6,51.8,29.92,SE,143,0.0,0.0,59,0.00,,-RA,0.00,0.00,VWS V14.01,2013-09-21 00:35:00,
2013-09-20 20:37:00,64.2,52.6,29.93,SE,143,0.0,0.0,66,0.00,,CLR,0.00,0.00,VWS V14.01,2013-09-21 00:37:00,
2013-09-20 20:40:00,66.4,52.1,29.92,SSE,147,0.0,2.0,60,0.00,,-RA,0.00,0.00,VWS V14.01,2013-09-21 00:40:00,
2013-09-20 20:42:00,63.9,52.3,29.93,SE,143,0.0,0.0,66,0.00,,CLR,0.00,0.00,VWS V14.01,2013-09-21 00:42:00,
2013-09-20 20:45:00,66.4,52.1,29.92,SE,145,0.0,0.0,60,0.00,,-RA,0.00,0.00,VWS V14.01,2013-09-21 00:45:00,
2013-09-20 20:47:00,63.5,52.4,29.94,SE,143,0.0,1.0,67,0.00,,CLR,0.00,0.00,VWS V14.01,2013-09-21 00:47:00,
2013-09-20 20:50:00,66.3,52.0,29.92,SSE,147,0.0,0.0,60,0.00,,-RA,0.00,0.00,VWS V14.01,2013-09-21 00:50:00,
2013-09-20 20:52:00,63.2,52.5,29.94,SE,143,0.0,0.0,68,0.00,,CLR,0.00,0.00,VWS V14.01,2013-09-21 00:52:00,
2013-09-20 20:55:00,66.0,52.2,29.92,ESE,121,0.0,3.0,61,0.00,,-RA,0.00,0.00,VWS V14.01,2013-09-21 00:55:00,
2013-09-20 20:57:00,63.1,52.4,29.94,SE,143,0.0,0.0,68,0.00,,CLR,0.00,0.00,VWS V14.01,2013-09-21 00:57:00,
2013-09-20 21:00:00,65.8,52.0,29.92,SE,127,0.0,0.0,61,0.00,,-RA,0.00,0.00,VWS V14.01,2013-09-21 01:00:00,
2013-09-20 21:02:00,62.7,52.4,29.94,SE,143,0.0,0.0,69,0.00,,CLR,0.00,0.00,VWS V14.01,2013-09-21 01:02:00,
2013-09-20 21:05:00,65.8,52.4,29.92,SE,130,0.0,0.0,62,0.00,,-RA,0.00,0.00,VWS V14.01,2013-09-21 01:05:00,
2013-09-20 21:07:00,62.4,52.5,29.94,SE,143,0.0,0.0,70,0.00,,CLR,0.00,0.00,VWS V14.01,2013-09-21 01:07:00,
2013-09-20 21:10:00,65.6,52.2,29.92,SE,130,0.0,0.0,62,0.00,,-RA,0.00,0.00,VWS V14.01,2013-09-21 01:10:00,
2013-09-20 21:12:00,62.3,52.8,29.94,SE,143,0.0,0.0,71,0.00,,CLR,0.00,0.00,VWS V14.01,2013-09-21 01:12:00,
2013-09-20 21:15:00,65.5,52.2,29.93,SE,143,0.0,1.0,62,0.00,,-RA,0.00,0.00,VWS V14.01,2013-09-21 01:15:00,
2013-09-20 21:17:00,62.0,52.5,29.94,SE,143,0.0,0.0,71,0.00,,CLR,0.00,0.00,VWS V14.01,2013-09-21 01:17:00,
2013-09-20 21:20:00,65.3,52.4,29.93,SE,143,0.0,0.0,63,0.00,,-RA,0.00,0.00,VWS V14.01,2013-09-21 01:20:00,
2013-09-20 21:22:00,61.8,52.3,29.94,SE,143,0.0,0.0,71,0.00,,CLR,0.00,0.00,VWS V14.01,2013-09-21 01:22:00,
2013-09-20 21:25:00,65.0,52.5,29.93,SE,143,0.0,0.0,64,0.00,,-RA,0.00,0.00,VWS V14.01,2013-09-21 01:25:00,
2013-09-20 21:27:00,61.5,52.4,29.94,SE,143,0.0,0.0,72,0.00,,CLR,0.00,0.00,VWS V14.01,2013-09-21 01:27:00,
2013-09-20 21:30:00,64.7,52.3,29.93,SE,143,0.0,0.0,64,0.00,,-RA,0.00,0.00,VWS V14.01,2013-09-21 01:30:00,
2013-09-20 21:32:00,61.2,52.1,29.94,SE,143,0.0,0.0,72,0.00,,CLR,0.00,0.00,VWS V14.01,2013-09-21 01:32:00,
2013-09-20 21:35:00,64.3,52.3,29.93,SE,143,0.0,0.0,65,0.00,,-RA,0.00,0.00,VWS V14.01,2013-09-21 01:35:00,
2013-09-20 21:37:00,61.0,52.3,29.94,SE,143,0.0,0.0,73,0.00,,CLR,0.00,0.00,VWS V14.01,2013-09-21 01:37:00,
2013-09-20 21:40:00,64.0,52.4,29.93,SE,143,0.0,0.0,66,0.00,,-RA,0.00,0.00,VWS V14.01,2013-09-21 01:40:00,
2013-09-20 21:42:00,60.9,52.2,29.94,SE,143,0.0,0.0,73,0.00,,CLR,0.00,0.00,VWS V14.01,2013-09-21 01:42:00,
2013-09-20 21:45:00,63.7,52.5,29.94,SE,143,0.0,0.0,67,0.00,,-RA,0.00,0.00,VWS V14.01,2013-09-21 01:45:00,
2013-09-20 21:47:00,60.5,52.2,29.94,SE,143,0.0,0.0,74,0.00,,CLR,0.00,0.00,VWS V14.01,2013-09-21 01:47:00,
2013-09-20 21:50:00,63.4,52.3,29.94,SE,143,0.0,0.0,67,0.00,,-RA,0.00,0.00,VWS V14.01,2013-09-21 01:50:00,
2013-09-20 21:52:00,60.4,52.1,29.94,SE,143,0.0,0.0,74,0.00,,CLR,0.00,0.00,VWS V14.01,2013-09-21 01:52:00,
2013-09-20 21:55:00,63.1,52.4,29.94,SE,143,0.0,0.0,68,0.00,,-RA,0.00,0.00,VWS V14.01,2013-09-21 01:55:00,
2013-09-20 21:57:00,60.2,51.9,29.94,SE,143,0.0,0.0,74,0.00,,CLR,0.00,0.00,VWS V14.01,2013-09-21 01:57:00,
2013-09-20 22:00:00,62.9,52.6,29.94,SE,143,0.0,0.0,69,0.00,,-RA,0.00,0.00,VWS V14.01,2013-09-21 02:00:00,
2013-09-20 22:02:00,59.9,52.0,29.94,SE,143,0.0,0.0,75,0.00,,CLR,0.00,0.00,VWS V14.01,2013-09-21 02:02:00,
2013-09-20 22:05:00,62.6,52.7,29.94,SE,143,0.0,0.0,70,0.00,,-RA,0.00,0.00,VWS V14.01,2013-09-21 02:05:00,
2013-09-20 22:07:00,59.8,52.2,29.94,SE,143,0.0,0.0,76,0.00,,CLR,0.00,0.00,VWS V14.01,2013-09-21 02:07:00,
2013-09-20 22:10:00,62.3,52.4,29.94,SE,143,0.0,0.0,70,0.00,,-RA,0.00,0.00,VWS V14.01,2013-09-21 02:10:00,
2013-09-20 22:12:00,59.6,52.0,29.94,SE,143,0.0,0.0,76,0.00,,CLR,0.00,0.00,VWS V14.01,2013-09-21 02:12:00,
2013-09-20 22:15:00,62.1,52.6,29.94,SE,143,0.0,0.0,71,0.00,,-RA,0.00,0.00,VWS V14.01,2013-09-21 02:15:00,
2013-09-20 22:17:00,59.6,52.0,29.94,SE,143,0.0,0.0,76,0.00,,CLR,0.00,0.00,VWS V14.01,2013-09-21 02:17:00,
2013-09-20 22:20:00,61.8,52.3,29.94,SE,143,0.0,0.0,71,0.00,,-RA,0.00,0.00,VWS V14.01,2013-09-21 02:20:00,
2013-09-20 22:22:00,59.3,52.1,29.94,SE,143,0.0,0.0,77,0.00,,CLR,0.00,0.00,VWS V14.01,2013-09-21 02:22:00,
2013-09-20 22:25:00,61.6,52.5,29.94,SE,143,0.0,0.0,72,0.00,,-RA,0.00,0.00,VWS V14.01,2013-09-21 02:25:00,
2013-09-20 22:27:00,59.2,52.0,29.94,SE,143,0.0,0.0,77,0.00,,CLR,0.00,0.00,VWS V14.01,2013-09-21 02:27:00,
2013-09-20 22:30:00,61.3,52.2,29.94,SE,143,0.0,0.0,72,0.00,,-RA,0.00,0.00,VWS V14.01,2013-09-21 02:30:00,
2013-09-20 22:32:00,59.0,51.8,29.94,SE,143,0.0,0.0,77,0.00,,CLR,0.00,0.00,VWS V14.01,2013-09-21 02:32:00,
2013-09-20 22:35:00,61.2,52.5,29.94,SE,143,0.0,0.0,73,0.00,,-RA,0.00,0.00,VWS V14.01,2013-09-21 02:35:00,
2013-09-20 22:37:00,59.0,52.2,29.94,SE,143,0.0,0.0,78,0.00,,CLR,0.00,0.00,VWS V14.01,2013-09-21 02:37:00,
2013-09-20 22:40:00,60.9,52.2,29.94,SE,143,0.0,0.0,73,0.00,,-RA,0.00,0.00,VWS V14.01,2013-09-21 02:40:00,
2013-09-20 22:42:00,59.0,52.2,29.94,SE,143,0.0,0.0,78,0.00,,CLR,0.00,0.00,VWS V14.01,2013-09-21 02:42:00,
2013-09-20 22:45:00,60.7,52.4,29.94,SE,143,0.0,0.0,74,0.00,,-RA,0.00,0.00,VWS V14.01,2013-09-21 02:45:00,
2013-09-20 22:47:00,58.9,52.1,29.93,SE,143,0.0,0.0,78,0.00,,CLR,0.00,0.00,VWS V14.01,2013-09-21 02:47:00,
2013-09-20 22:50:00,60.5,52.2,29.94,SE,143,0.0,0.0,74,0.00,,-RA,0.00,0.00,VWS V14.01,2013-09-21 02:50:00,
2013-09-20 22:52:00,58.7,51.9,29.93,SE,143,0.0,0.0,78,0.00,,CLR,0.00,0.00,VWS V14.01,2013-09-21 02:52:00,
2013-09-20 22:55:00,60.4,52.1,29.94,SE,143,0.0,0.0,74,0.00,,-RA,0.00,0.00,VWS V14.01,2013-09-21 02:55:00,
2013-09-20 22:57:00,58.6,51.8,29.93,SE,143,0.0,0.0,78,0.00,,CLR,0.00,0.00,VWS V14.01,2013-09-21 02:57:00,
2013-09-20 23:00:00,60.1,52.2,29.94,SE,143,0.0,0.0,75,0.00,,-RA,0.00,0.00,VWS V14.01,2013-09-21 03:00:00,
2013-09-20 23:02:00,58.4,51.6,29.94,SE,143,0.0,0.0,78,0.00,,CLR,0.00,0.00,VWS V14.01,2013-09-21 03:02:00,
2013-09-20 23:05:00,59.9,52.3,29.94,SE,143,0.0,0.0,76,0.00,,-RA,0.00,0.00,VWS V14.01,2013-09-21 03:05:00,
2013-09-20 23:07:00,58.1,51.6,29.94,SE,143,0.0,0.0,79,0.00,,CLR,0.00,0.00,VWS V14.01,2013-09-21 03:07:00,
2013-09-20 23:10:00,59.8,52.2,29.94,SE,143,0.0,0.0,76,0.00,,-RA,0.00,0.00,VWS V14.01,2013-09-21 03:10:00,
2013-09-20 23:12:00,58.1,51.6,29.94,SE,143,0.0,0.0,79,0.00,,CLR,0.00,0.00,VWS V14.01,2013-09-21 03:12:00,
2013-09-20 23:15:00,59.6,52.0,29.94,SE,143,0.0,0.0,76,0.00,,-RA,0.00,0.00,VWS V14.01,2013-09-21 03:15:00,
2013-09-20 23:17:00,58.3,51.8,29.94,SE,143,0.0,3.0,79,0.00,,CLR,0.00,0.00,VWS V14.01,2013-09-21 03:17:00,
2013-09-20 23:20:00,59.5,51.9,29.94,SE,143,0.0,0.0,76,0.00,,-RA,0.00,0.00,VWS V14.01,2013-09-21 03:20:00,
2013-09-20 23:22:00,58.3,52.2,29.94,SSE,168,0.0,1.0,80,0.00,,CLR,0.00,0.00,VWS V14.01,2013-09-21 03:22:00,
2013-09-20 23:25:00,59.3,52.1,29.94,SE,136,0.0,0.0,77,0.00,,-RA,0.00,0.00,VWS V14.01,2013-09-21 03:25:00,
2013-09-20 23:27:00,58.3,52.2,29.94,SSE,168,0.0,0.0,80,0.00,,CLR,0.00,0.00,VWS V14.01,2013-09-21 03:27:00,
2013-09-20 23:30:00,59.0,51.8,29.94,SE,143,0.0,0.0,77,0.00,,-RA,0.00,0.00,VWS V14.01,2013-09-21 03:30:00,
2013-09-20 23:32:00,58.3,52.2,29.94,SSE,168,3.0,3.0,80,0.00,,CLR,0.00,0.00,VWS V14.01,2013-09-21 03:32:00,
2013-09-20 23:35:00,59.0,52.2,29.94,SE,143,0.0,0.0,78,0.00,,-RA,0.00,0.00,VWS V14.01,2013-09-21 03:35:00,
2013-09-20 23:37:00,58.1,52.0,29.94,SSE,168,0.0,0.0,80,0.00,,CLR,0.00,0.00,VWS V14.01,2013-09-21 03:37:00,
2013-09-20 23:40:00,59.0,52.2,29.94,SE,143,0.0,0.0,78,0.00,,-RA,0.00,0.00,VWS V14.01,2013-09-21 03:40:00,
2013-09-20 23:42:00,58.0,51.9,29.94,SSE,168,0.0,0.0,80,0.00,,CLR,0.00,0.00,VWS V14.01,2013-09-21 03:42:00,
2013-09-20 23:45:00,58.9,52.1,29.93,SE,143,0.0,0.0,78,0.00,,-RA,0.00,0.00,VWS V14.01,2013-09-21 03:45:00,
2013-09-20 23:47:00,57.6,51.5,29.95,SSE,168,0.0,0.0,80,0.00,,CLR,0.00,0.00,VWS V14.01,2013-09-21 03:47:00,
2013-09-20 23:50:00,58.7,51.9,29.93,SE,136,0.0,0.0,78,0.00,,-RA,0.00,0.00,VWS V14.01,2013-09-21 03:50:00,
2013-09-20 23:52:00,57.5,51.4,29.95,SSE,168,0.0,0.0,80,0.00,,CLR,0.00,0.00,VWS V14.01,2013-09-21 03:52:00,
2013-09-20 23:55:00,58.7,51.9,29.93,SE,143,0.0,0.0,78,0.00,,-RA,0.00,0.00,VWS V14.01,2013-09-21 03:55:00,
2013-09-20 23:57:00,57.3,51.2,29.95,SSE,168,0.0,0.0,80,0.00,,CLR,0.00,0.00,VWS V14.01,2013-09-21 03:57:00,